| time (UTC) | temp F | wind direction | speed knots | gust knots | rain 1hr in | rain 24hr in | rain mn in | humidity % | barometer mb |
| 20260503230903 | 66 | 306 | 3.5 | 8.7 | 0.00 | 0.00 | 0.00 | 60 | 1009.6 |
| 20260503230803 | 66 | 306 | 3.5 | 8.7 | 0.00 | 0.00 | 0.00 | 60 | 1009.8 |
| 20260503230703 | 67 | 306 | 3.5 | 8.7 | 0.00 | 0.00 | 0.00 | 60 | 1009.7 |
| 20260503230603 | 66 | 306 | 3.5 | 8.7 | 0.00 | 0.00 | 0.00 | 60 | 1009.7 |
| 20260503230503 | 66 | 305 | 3.5 | 8.7 | 0.00 | 0.00 | 0.00 | 60 | 1009.7 |
| 20260503230403 | 66 | 305 | 3.5 | 8.7 | 0.00 | 0.00 | 0.00 | 60 | 1009.8 |
| 20260503230303 | 66 | 305 | 3.5 | 9.6 | 0.00 | 0.00 | 0.00 | 60 | 1009.7 |
| 20260503230203 | 66 | 307 | 3.5 | 9.6 | 0.00 | 0.00 | 0.00 | 60 | 1009.8 |
| 20260503230103 | 66 | 305 | 3.5 | 9.6 | 0.00 | 0.00 | 0.00 | 59 | 1009.8 |
| 20260503230018 | 66 | 302 | 3.5 | 9.6 | 0.00 | 0.00 | 0.00 | 59 | 1009.9 |
| 20260503230005 | 66 | 302 | 2.6 | 9.6 | 0.00 | 0.00 | 0.00 | 59 | 1009.9 |
| 20260503225903 | 66 | 301 | 2.6 | 9.6 | 0.00 | 0.00 | 0.00 | 59 | 1009.8 |
| 20260503225704 | 66 | 300 | 2.6 | 9.6 | 0.00 | 0.00 | 0.00 | 59 | 1009.8 |
| 20260503225603 | 66 | 300 | 2.6 | 9.6 | 0.00 | 0.00 | 0.00 | 59 | 1009.9 |
| 20260503225503 | 66 | 302 | 2.6 | 9.6 | 0.00 | 0.00 | 0.00 | 58 | 1009.9 |
| 20260503225403 | 66 | 302 | 2.6 | 9.6 | 0.00 | 0.00 | 0.00 | 58 | 1009.9 |
| 20260503225304 | 66 | 303 | 2.6 | 7.8 | 0.00 | 0.00 | 0.00 | 58 | 1009.9 |
| 20260503225217 | 66 | 301 | 2.6 | 7.8 | 0.00 | 0.00 | 0.00 | 57 | 1009.9 |
| 20260503225203 | 66 | 300 | 2.6 | 7.0 | 0.00 | 0.00 | 0.00 | 58 | 1009.9 |
| 20260503225103 | 66 | 302 | 2.6 | 7.0 | 0.00 | 0.00 | 0.00 | 58 | 1009.9 |
| 20260503224903 | 66 | 303 | 2.6 | 7.8 | 0.00 | 0.00 | 0.00 | 58 | 1010.0 |
| 20260503224803 | 66 | 301 | 2.6 | 7.8 | 0.00 | 0.00 | 0.00 | 58 | 1009.9 |
| 20260503224703 | 66 | 302 | 2.6 | 7.8 | 0.00 | 0.00 | 0.00 | 59 | 1009.9 |
| 20260503224603 | 66 | 304 | 2.6 | 7.8 | 0.00 | 0.00 | 0.00 | 59 | 1009.9 |
| 20260503224503 | 66 | 305 | 2.6 | 7.8 | 0.00 | 0.00 | 0.00 | 58 | 1009.9 |
| 20260503224403 | 66 | 306 | 2.6 | 7.8 | 0.00 | 0.00 | 0.00 | 58 | 1009.9 |
| 20260503224303 | 66 | 305 | 2.6 | 7.8 | 0.00 | 0.00 | 0.00 | 59 | 1010.0 |
| 20260503224203 | 66 | 305 | 2.6 | 7.8 | 0.00 | 0.00 | 0.00 | 60 | 1010.0 |
| 20260503224103 | 66 | 303 | 2.6 | 7.8 | 0.00 | 0.00 | 0.00 | 59 | 1010.0 |
| 20260503224004 | 66 | 302 | 2.6 | 7.0 | 0.00 | 0.00 | 0.00 | 59 | 1010.0 |
| 20260503223918 | 66 | 303 | 2.6 | 7.0 | 0.00 | 0.00 | 0.00 | 59 | 1009.9 |
| 20260503223903 | 66 | 304 | 2.6 | 7.0 | 0.00 | 0.00 | 0.00 | 59 | 1010.0 |
| 20260503223803 | 66 | 304 | 2.6 | 7.0 | 0.00 | 0.00 | 0.00 | 60 | 1010.0 |
| 20260503223603 | 66 | 302 | 2.6 | 7.8 | 0.00 | 0.00 | 0.00 | 59 | 1010.1 |
| 20260503223503 | 66 | 299 | 2.6 | 7.8 | 0.00 | 0.00 | 0.00 | 59 | 1010.1 |
| 20260503223403 | 66 | 298 | 2.6 | 7.8 | 0.00 | 0.00 | 0.00 | 59 | 1010.2 |
| 20260503223303 | 66 | 300 | 2.6 | 7.8 | 0.00 | 0.00 | 0.00 | 59 | 1010.1 |
| 20260503223203 | 66 | 301 | 2.6 | 7.8 | 0.00 | 0.00 | 0.00 | 58 | 1010.0 |
| 20260503223103 | 66 | 301 | 2.6 | 7.8 | 0.00 | 0.00 | 0.00 | 59 | 1010.1 |
| 20260503223003 | 66 | 304 | 2.6 | 7.8 | 0.00 | 0.00 | 0.00 | 60 | 1010.1 |
| 20260503222903 | 66 | 305 | 2.6 | 7.8 | 0.00 | 0.00 | 0.00 | 60 | 1010.2 |
| 20260503222803 | 66 | 307 | 2.6 | 7.8 | 0.00 | 0.00 | 0.00 | 60 | 1010.2 |
| 20260503222603 | 66 | 308 | 2.6 | 7.0 | 0.00 | 0.00 | 0.00 | 61 | 1010.3 |
| 20260503222517 | 66 | 309 | 2.6 | 7.0 | 0.00 | 0.00 | 0.00 | 61 | 1010.2 |
| 20260503222503 | 66 | 309 | 2.6 | 7.0 | 0.00 | 0.00 | 0.00 | 61 | 1010.2 |
| 20260503222403 | 66 | 312 | 2.6 | 7.0 | 0.00 | 0.00 | 0.00 | 61 | 1010.2 |
| 20260503222218 | 66 | 310 | 2.6 | 9.6 | 0.00 | 0.00 | 0.00 | 61 | 1010.3 |
| 20260503222203 | 66 | 309 | 3.5 | 9.6 | 0.00 | 0.00 | 0.00 | 61 | 1010.3 |
| 20260503222103 | 66 | 309 | 3.5 | 9.6 | 0.00 | 0.00 | 0.00 | 60 | 1010.2 |
| 20260503221903 | 66 | 308 | 2.6 | 9.6 | 0.00 | 0.00 | 0.00 | 60 | 1010.3 |
| 20260503221816 | 66 | 307 | 2.6 | 9.6 | 0.00 | 0.00 | 0.00 | 59 | 1010.3 |
| 20260503221803 | 66 | 308 | 3.5 | 9.6 | 0.00 | 0.00 | 0.00 | 59 | 1010.3 |
| 20260503221703 | 66 | 310 | 3.5 | 10.4 | 0.00 | 0.00 | 0.00 | 59 | 1010.3 |
| 20260503221503 | 66 | 307 | 2.6 | 10.4 | 0.00 | 0.00 | 0.00 | 59 | 1010.3 |
| 20260503221403 | 66 | 305 | 2.6 | 10.4 | 0.00 | 0.00 | 0.00 | 59 | 1010.3 |
| 20260503221303 | 67 | 304 | 2.6 | 10.4 | 0.00 | 0.00 | 0.00 | 58 | 1010.3 |
| 20260503221203 | 67 | 304 | 2.6 | 10.4 | 0.00 | 0.00 | 0.00 | 58 | 1010.4 |
| 20260503221104 | 67 | 303 | 2.6 | 10.4 | 0.00 | 0.00 | 0.00 | 59 | 1010.3 |
| 20260503221003 | 67 | 303 | 2.6 | 10.4 | 0.00 | 0.00 | 0.00 | 59 | 1010.4 |
| 20260503220904 | 67 | 301 | 2.6 | 10.4 | 0.00 | 0.00 | 0.00 | 58 | 1010.4 |
| 20260503220816 | 67 | 300 | 2.6 | 10.4 | 0.00 | 0.00 | 0.00 | 59 | 1010.3 |
| 20260503220703 | 67 | 297 | 2.6 | 9.6 | 0.00 | 0.00 | 0.00 | 59 | 1010.4 |
| 20260503220503 | 67 | 301 | 2.6 | 9.6 | 0.00 | 0.00 | 0.00 | 58 | 1010.3 |
| 20260503220403 | 67 | 302 | 2.6 | 9.6 | 0.00 | 0.00 | 0.00 | 58 | 1010.3 |
| 20260503220303 | 67 | 304 | 2.6 | 6.1 | 0.00 | 0.00 | 0.00 | 60 | 1010.4 |
| 20260503220203 | 67 | 307 | 2.6 | 7.0 | 0.00 | 0.00 | 0.00 | 59 | 1010.4 |
| 20260503220104 | 67 | 306 | 2.6 | 7.8 | 0.00 | 0.00 | 0.00 | 58 | 1010.5 |
| 20260503220003 | 67 | 306 | 2.6 | 7.8 | 0.00 | 0.00 | 0.00 | 58 | 1010.4 |
| 20260503215903 | 67 | 307 | 2.6 | 7.8 | 0.00 | 0.00 | 0.00 | 58 | 1010.4 |
| 20260503215803 | 67 | 305 | 2.6 | 7.8 | 0.00 | 0.00 | 0.00 | 58 | 1010.4 |
| 20260503215717 | 67 | 305 | 2.6 | 7.8 | 0.00 | 0.00 | 0.00 | 58 | 1010.4 |
| 20260503215603 | 67 | 302 | 2.6 | 7.8 | 0.00 | 0.00 | 0.00 | 58 | 1010.4 |
| 20260503215518 | 67 | 303 | 2.6 | 7.8 | 0.00 | 0.00 | 0.00 | 58 | 1010.5 |
| 20260503215203 | 67 | 297 | 2.6 | 7.8 | 0.00 | 0.00 | 0.00 | 57 | 1010.4 |
| 20260503215103 | 67 | 298 | 2.6 | 7.0 | 0.00 | 0.00 | 0.00 | 59 | 1010.4 |
| 20260503215003 | 67 | 298 | 3.5 | 7.0 | 0.00 | 0.00 | 0.00 | 59 | 1010.5 |
| 20260503214903 | 67 | 298 | 3.5 | 7.0 | 0.00 | 0.00 | 0.00 | 58 | 1010.4 |
| 20260503214803 | 67 | 299 | 3.5 | 7.0 | 0.00 | 0.00 | 0.00 | 58 | 1010.4 |
| 20260503214703 | 67 | 302 | 3.5 | 7.0 | 0.00 | 0.00 | 0.00 | 59 | 1010.5 |
| 20260503214617 | 67 | 302 | 3.5 | 7.0 | 0.00 | 0.00 | 0.00 | 58 | 1010.5 |
| 20260503214603 | 67 | 302 | 2.6 | 7.0 | 0.00 | 0.00 | 0.00 | 58 | 1010.4 |
| 20260503214503 | 67 | 303 | 2.6 | 7.0 | 0.00 | 0.00 | 0.00 | 57 | 1010.5 |
| 20260503214203 | 67 | 301 | 2.6 | 7.0 | 0.00 | 0.00 | 0.00 | 58 | 1010.4 |
| 20260503214103 | 68 | 301 | 2.6 | 7.0 | 0.00 | 0.00 | 0.00 | 58 | 1010.5 |
| 20260503214017 | 68 | 302 | 2.6 | 7.0 | 0.00 | 0.00 | 0.00 | 57 | 1010.5 |
| 20260503214003 | 68 | 302 | 2.6 | 7.0 | 0.00 | 0.00 | 0.00 | 57 | 1010.4 |
| 20260503213903 | 68 | 303 | 2.6 | 7.0 | 0.00 | 0.00 | 0.00 | 58 | 1010.5 |
| 20260503213703 | 68 | 304 | 2.6 | 7.8 | 0.00 | 0.00 | 0.00 | 58 | 1010.5 |
| 20260503213603 | 68 | 304 | 2.6 | 7.8 | 0.00 | 0.00 | 0.00 | 58 | 1010.5 |
| 20260503213503 | 68 | 303 | 2.6 | 7.8 | 0.00 | 0.00 | 0.00 | 59 | 1010.5 |
| 20260503213403 | 68 | 300 | 2.6 | 7.8 | 0.00 | 0.00 | 0.00 | 58 | 1010.5 |
| 20260503213303 | 68 | 301 | 2.6 | 8.7 | 0.00 | 0.00 | 0.00 | 58 | 1010.5 |
| 20260503213203 | 68 | 304 | 2.6 | 8.7 | 0.00 | 0.00 | 0.00 | 58 | 1010.4 |
| 20260503213103 | 68 | 307 | 2.6 | 8.7 | 0.00 | 0.00 | 0.00 | 58 | 1010.5 |
| 20260503213003 | 68 | 308 | 2.6 | 8.7 | 0.00 | 0.00 | 0.00 | 57 | 1010.5 |
| 20260503212903 | 68 | 306 | 2.6 | 8.7 | 0.00 | 0.00 | 0.00 | 57 | 1010.5 |
| 20260503212803 | 68 | 303 | 2.6 | 8.7 | 0.00 | 0.00 | 0.00 | 57 | 1010.4 |
| 20260503212703 | 68 | 304 | 2.6 | 8.7 | 0.00 | 0.00 | 0.00 | 56 | 1010.4 |
| 20260503212603 | 68 | 304 | 2.6 | 8.7 | 0.00 | 0.00 | 0.00 | 56 | 1010.4 |
| 20260503212518 | 68 | 304 | 2.6 | 8.7 | 0.00 | 0.00 | 0.00 | 56 | 1010.4 |
| 20260503212503 | 68 | 305 | 2.6 | 8.7 | 0.00 | 0.00 | 0.00 | 56 | 1010.4 |
| 20260503212403 | 68 | 307 | 2.6 | 8.7 | 0.00 | 0.00 | 0.00 | 55 | 1010.4 |
| 20260503212203 | 69 | 307 | 1.7 | 6.1 | 0.00 | 0.00 | 0.00 | 54 | 1010.5 |
| 20260503212118 | 69 | 305 | 1.7 | 6.1 | 0.00 | 0.00 | 0.00 | 55 | 1010.4 |
| 20260503212103 | 69 | 302 | 1.7 | 6.1 | 0.00 | 0.00 | 0.00 | 55 | 1010.4 |
| 20260503212003 | 69 | 300 | 1.7 | 6.1 | 0.00 | 0.00 | 0.00 | 56 | 1010.5 |
| 20260503211803 | 69 | 306 | 1.7 | 6.1 | 0.00 | 0.00 | 0.00 | 56 | 1010.4 |
| 20260503211703 | 69 | 304 | 1.7 | 6.1 | 0.00 | 0.00 | 0.00 | 56 | 1010.4 |
| 20260503211603 | 69 | 306 | 1.7 | 6.1 | 0.00 | 0.00 | 0.00 | 56 | 1010.3 |
| 20260503211503 | 69 | 305 | 1.7 | 6.1 | 0.00 | 0.00 | 0.00 | 57 | 1010.4 |
| 20260503211303 | 69 | 304 | 2.6 | 6.1 | 0.00 | 0.00 | 0.00 | 55 | 1010.4 |
| 20260503211203 | 69 | 303 | 2.6 | 7.0 | 0.00 | 0.00 | 0.00 | 55 | 1010.5 |
| 20260503211103 | 69 | 305 | 2.6 | 7.0 | 0.00 | 0.00 | 0.00 | 55 | 1010.5 |
| 20260503211003 | 69 | 305 | 2.6 | 7.0 | 0.00 | 0.00 | 0.00 | 55 | 1010.4 |
| 20260503210903 | 69 | 305 | 2.6 | 7.0 | 0.00 | 0.00 | 0.00 | 56 | 1010.5 |
| 20260503210803 | 69 | 305 | 2.6 | 7.0 | 0.00 | 0.00 | 0.00 | 55 | 1010.4 |
| 20260503210704 | 69 | 305 | 2.6 | 7.0 | 0.00 | 0.00 | 0.00 | 55 | 1010.5 |
| 20260503210603 | 69 | 304 | 2.6 | 7.0 | 0.00 | 0.00 | 0.00 | 55 | 1010.4 |
| 20260503210503 | 69 | 304 | 2.6 | 7.0 | 0.00 | 0.00 | 0.00 | 55 | 1010.4 |
| 20260503210403 | 69 | 306 | 2.6 | 7.0 | 0.00 | 0.00 | 0.00 | 55 | 1010.5 |
| 20260503210303 | 69 | 304 | 2.6 | 7.0 | 0.00 | 0.00 | 0.00 | 54 | 1010.6 |
| 20260503210204 | 69 | 304 | 2.6 | 6.1 | 0.00 | 0.00 | 0.00 | 55 | 1010.5 |
| 20260503210004 | 69 | 305 | 2.6 | 6.1 | 0.00 | 0.00 | 0.00 | 55 | 1010.6 |
| 20260503205903 | 69 | 304 | 2.6 | 6.1 | 0.00 | 0.00 | 0.00 | 54 | 1010.5 |
| 20260503205803 | 69 | 303 | 2.6 | 6.1 | 0.00 | 0.00 | 0.00 | 54 | 1010.5 |
| 20260503205703 | 69 | 304 | 2.6 | 6.1 | 0.00 | 0.00 | 0.00 | 54 | 1010.5 |
| 20260503205605 | 69 | 303 | 2.6 | 6.1 | 0.00 | 0.00 | 0.00 | 53 | 1010.5 |
| 20260503205503 | 70 | 301 | 2.6 | 6.1 | 0.00 | 0.00 | 0.00 | 55 | 1010.6 |
| 20260503205403 | 69 | 299 | 2.6 | 6.1 | 0.00 | 0.00 | 0.00 | 54 | 1010.6 |
| 20260503205304 | 70 | 304 | 2.6 | 6.1 | 0.00 | 0.00 | 0.00 | 54 | 1010.6 |
| 20260503205203 | 70 | 302 | 2.6 | 6.1 | 0.00 | 0.00 | 0.00 | 53 | 1010.7 |
| 20260503205118 | 70 | 305 | 2.6 | 6.1 | 0.00 | 0.00 | 0.00 | 52 | 1010.7 |
| 20260503205103 | 70 | 306 | 2.6 | 6.1 | 0.00 | 0.00 | 0.00 | 52 | 1010.7 |
| 20260503205004 | 70 | 303 | 2.6 | 6.1 | 0.00 | 0.00 | 0.00 | 52 | 1010.6 |
| 20260503204818 | 70 | 304 | 2.6 | 6.1 | 0.00 | 0.00 | 0.00 | 52 | 1010.6 |
| 20260503204803 | 70 | 304 | 2.6 | 6.1 | 0.00 | 0.00 | 0.00 | 52 | 1010.7 |
| 20260503204717 | 70 | 304 | 2.6 | 6.1 | 0.00 | 0.00 | 0.00 | 54 | 1010.7 |
| 20260503204703 | 70 | 304 | 1.7 | 6.1 | 0.00 | 0.00 | 0.00 | 54 | 1010.7 |
| 20260503204403 | 70 | 306 | 1.7 | 6.1 | 0.00 | 0.00 | 0.00 | 51 | 1010.7 |
| 20260503204319 | 70 | 302 | 1.7 | 6.1 | 0.00 | 0.00 | 0.00 | 51 | 1010.7 |
| 20260503204303 | 70 | 301 | 1.7 | 6.1 | 0.00 | 0.00 | 0.00 | 51 | 1010.7 |
| 20260503204203 | 70 | 304 | 1.7 | 6.1 | 0.00 | 0.00 | 0.00 | 51 | 1010.7 |
| 20260503204003 | 70 | 300 | 1.7 | 6.1 | 0.00 | 0.00 | 0.00 | 50 | 1010.8 |
| 20260503203917 | 70 | 300 | 1.7 | 6.1 | 0.00 | 0.00 | 0.00 | 51 | 1010.7 |
| 20260503203903 | 70 | 299 | 1.7 | 6.1 | 0.00 | 0.00 | 0.00 | 51 | 1010.7 |
| 20260503203804 | 70 | 300 | 1.7 | 5.2 | 0.00 | 0.00 | 0.00 | 51 | 1010.7 |
| 20260503203617 | 70 | 301 | 1.7 | 5.2 | 0.00 | 0.00 | 0.00 | 54 | 1010.7 |
| 20260503203603 | 70 | 301 | 2.6 | 5.2 | 0.00 | 0.00 | 0.00 | 54 | 1010.7 |
| 20260503203503 | 70 | 304 | 2.6 | 7.0 | 0.00 | 0.00 | 0.00 | 51 | 1010.7 |
| 20260503203218 | 70 | 305 | 1.7 | 7.0 | 0.00 | 0.00 | 0.00 | 52 | 1010.7 |
| 20260503203203 | 70 | 306 | 2.6 | 7.0 | 0.00 | 0.00 | 0.00 | 52 | 1010.7 |
| 20260503203103 | 70 | 306 | 2.6 | 7.0 | 0.00 | 0.00 | 0.00 | 50 | 1010.7 |
| 20260503202903 | 71 | 305 | 1.7 | 7.0 | 0.00 | 0.00 | 0.00 | 50 | 1010.8 |
| 20260503202803 | 71 | 302 | 1.7 | 7.0 | 0.00 | 0.00 | 0.00 | 50 | 1010.7 |
| 20260503202703 | 71 | 301 | 2.6 | 7.0 | 0.00 | 0.00 | 0.00 | 50 | 1010.7 |
| 20260503202603 | 71 | 301 | 1.7 | 7.0 | 0.00 | 0.00 | 0.00 | 50 | 1010.8 |
| 20260503202503 | 71 | 303 | 2.6 | 6.1 | 0.00 | 0.00 | 0.00 | 52 | 1010.8 |
| 20260503202403 | 71 | 305 | 2.6 | 6.1 | 0.00 | 0.00 | 0.00 | 52 | 1010.7 |
| 20260503202304 | 71 | 305 | 2.6 | 6.1 | 0.00 | 0.00 | 0.00 | 52 | 1010.8 |
| 20260503202104 | 71 | 307 | 2.6 | 6.1 | 0.00 | 0.00 | 0.00 | 50 | 1010.7 |
| 20260503202019 | 71 | 308 | 2.6 | 6.1 | 0.00 | 0.00 | 0.00 | 51 | 1010.8 |
| 20260503202003 | 71 | 307 | 2.6 | 6.1 | 0.00 | 0.00 | 0.00 | 50 | 1010.8 |
| 20260503201903 | 71 | 308 | 2.6 | 6.1 | 0.00 | 0.00 | 0.00 | 51 | 1010.8 |
| 20260503201706 | 71 | 312 | 2.6 | 5.2 | 0.00 | 0.00 | 0.00 | 52 | 1010.9 |
| 20260503201604 | 71 | 309 | 2.6 | 6.1 | 0.00 | 0.00 | 0.00 | 52 | 1010.8 |
| 20260503201506 | 71 | 306 | 2.6 | 6.1 | 0.00 | 0.00 | 0.00 | 52 | 1010.9 |
| 20260503201406 | 71 | 302 | 2.6 | 6.1 | 0.00 | 0.00 | 0.00 | 50 | 1010.9 |
| 20260503201306 | 70 | 302 | 2.6 | 6.1 | 0.00 | 0.00 | 0.00 | 52 | 1010.9 |
| 20260503201217 | 70 | 303 | 2.6 | 6.1 | 0.00 | 0.00 | 0.00 | 52 | 1010.9 |
| 20260503201206 | 70 | 302 | 2.6 | 6.1 | 0.00 | 0.00 | 0.00 | 52 | 1011.0 |
| 20260503201104 | 70 | 302 | 2.6 | 6.1 | 0.00 | 0.00 | 0.00 | 51 | 1011.0 |
| 20260503200903 | 70 | 300 | 2.6 | 6.1 | 0.00 | 0.00 | 0.00 | 53 | 1010.9 |
| 20260503200818 | 70 | 302 | 2.6 | 6.1 | 0.00 | 0.00 | 0.00 | 51 | 1011.0 |
| 20260503200803 | 70 | 302 | 2.6 | 7.0 | 0.00 | 0.00 | 0.00 | 50 | 1011.0 |
| 20260503200719 | 70 | 302 | 2.6 | 7.0 | 0.00 | 0.00 | 0.00 | 50 | 1011.0 |
| 20260503200703 | 70 | 301 | 2.6 | 7.0 | 0.00 | 0.00 | 0.00 | 52 | 1011.0 |
| 20260503200403 | 70 | 306 | 2.6 | 7.0 | 0.00 | 0.00 | 0.00 | 53 | 1011.0 |
| 20260503200303 | 70 | 305 | 2.6 | 7.0 | 0.00 | 0.00 | 0.00 | 53 | 1011.1 |
| 20260503200203 | 70 | 305 | 2.6 | 7.0 | 0.00 | 0.00 | 0.00 | 53 | 1011.1 |
| 20260503200006 | 70 | 305 | 2.6 | 7.0 | 0.00 | 0.00 | 0.00 | 53 | 1011.1 |
| 20260503195919 | 70 | 306 | 2.6 | 7.0 | 0.00 | 0.00 | 0.00 | 52 | 1011.2 |
| 20260503195803 | 69 | 306 | 2.6 | 7.0 | 0.00 | 0.00 | 0.00 | 53 | 1011.1 |
| 20260503195603 | 69 | 305 | 2.6 | 7.0 | 0.00 | 0.00 | 0.00 | 51 | 1011.2 |
| 20260503195503 | 69 | 305 | 1.7 | 7.0 | 0.00 | 0.00 | 0.00 | 52 | 1011.3 |
| 20260503195403 | 69 | 303 | 1.7 | 7.0 | 0.00 | 0.00 | 0.00 | 52 | 1011.3 |
| 20260503195304 | 69 | 303 | 1.7 | 7.0 | 0.00 | 0.00 | 0.00 | 52 | 1011.3 |
| 20260503195203 | 69 | 301 | 1.7 | 7.0 | 0.00 | 0.00 | 0.00 | 53 | 1011.3 |
| 20260503195103 | 69 | 302 | 1.7 | 7.0 | 0.00 | 0.00 | 0.00 | 53 | 1011.3 |
| 20260503195016 | 69 | 302 | 1.7 | 6.1 | 0.00 | 0.00 | 0.00 | 52 | 1011.2 |
| 20260503195003 | 69 | 302 | 1.7 | 7.0 | 0.00 | 0.00 | 0.00 | 53 | 1011.2 |
| 20260503194903 | 69 | 299 | 1.7 | 7.0 | 0.00 | 0.00 | 0.00 | 54 | 1011.3 |
| 20260503194703 | 69 | 297 | 1.7 | 7.0 | 0.00 | 0.00 | 0.00 | 52 | 1011.3 |
| 20260503194603 | 69 | 298 | 1.7 | 7.0 | 0.00 | 0.00 | 0.00 | 52 | 1011.2 |
| 20260503194503 | 70 | 301 | 1.7 | 7.0 | 0.00 | 0.00 | 0.00 | 51 | 1011.3 |
| 20260503194403 | 70 | 303 | 1.7 | 7.0 | 0.00 | 0.00 | 0.00 | 52 | 1011.3 |
| 20260503194303 | 70 | 305 | 1.7 | 7.0 | 0.00 | 0.00 | 0.00 | 52 | 1011.3 |
| 20260503194217 | 70 | 308 | 1.7 | 7.0 | 0.00 | 0.00 | 0.00 | 52 | 1011.2 |
| 20260503194203 | 70 | 309 | 1.7 | 7.0 | 0.00 | 0.00 | 0.00 | 52 | 1011.2 |
| 20260503194103 | 70 | 309 | 1.7 | 7.0 | 0.00 | 0.00 | 0.00 | 51 | 1011.3 |
| 20260503193903 | 70 | 312 | 1.7 | 6.1 | 0.00 | 0.00 | 0.00 | 51 | 1011.3 |
| 20260503193818 | 70 | 314 | 1.7 | 6.1 | 0.00 | 0.00 | 0.00 | 51 | 1011.1 |
| 20260503193803 | 70 | 313 | 1.7 | 6.1 | 0.00 | 0.00 | 0.00 | 52 | 1011.1 |
| 20260503193703 | 70 | 312 | 1.7 | 6.1 | 0.00 | 0.00 | 0.00 | 51 | 1011.2 |
| 20260503193503 | 70 | 308 | 1.7 | 6.1 | 0.00 | 0.00 | 0.00 | 52 | 1011.2 |
| 20260503193403 | 71 | 307 | 1.7 | 6.1 | 0.00 | 0.00 | 0.00 | 51 | 1011.2 |
| 20260503193303 | 71 | 307 | 1.7 | 6.1 | 0.00 | 0.00 | 0.00 | 50 | 1011.2 |
| 20260503193203 | 71 | 307 | 1.7 | 6.1 | 0.00 | 0.00 | 0.00 | 52 | 1011.3 |
| 20260503193103 | 71 | 307 | 1.7 | 6.1 | 0.00 | 0.00 | 0.00 | 53 | 1011.2 |
| 20260503193003 | 71 | 305 | 1.7 | 6.1 | 0.00 | 0.00 | 0.00 | 53 | 1011.2 |
| 20260503192903 | 71 | 305 | 1.7 | 6.1 | 0.00 | 0.00 | 0.00 | 51 | 1011.2 |
| 20260503192817 | 71 | 306 | 1.7 | 6.1 | 0.00 | 0.00 | 0.00 | 52 | 1011.2 |
| 20260503192803 | 71 | 305 | 1.7 | 6.1 | 0.00 | 0.00 | 0.00 | 52 | 1011.2 |
| 20260503192703 | 71 | 306 | 1.7 | 6.1 | 0.00 | 0.00 | 0.00 | 52 | 1011.1 |
| 20260503192617 | 71 | 307 | 1.7 | 6.1 | 0.00 | 0.00 | 0.00 | 52 | 1011.2 |
| 20260503192305 | 71 | 302 | 1.7 | 6.1 | 0.00 | 0.00 | 0.00 | 52 | 1011.1 |
| 20260503192203 | 71 | 300 | 2.6 | 6.1 | 0.00 | 0.00 | 0.00 | 53 | 1011.2 |
| 20260503192103 | 71 | 304 | 2.6 | 6.1 | 0.00 | 0.00 | 0.00 | 52 | 1011.1 |
| 20260503192003 | 71 | 306 | 2.6 | 6.1 | 0.00 | 0.00 | 0.00 | 52 | 1011.1 |
| 20260503191903 | 71 | 305 | 1.7 | 6.1 | 0.00 | 0.00 | 0.00 | 52 | 1011.1 |
| 20260503191803 | 71 | 304 | 1.7 | 6.1 | 0.00 | 0.00 | 0.00 | 51 | 1011.2 |
| 20260503191703 | 72 | 304 | 1.7 | 6.1 | 0.00 | 0.00 | 0.00 | 51 | 1011.2 |
| 20260503191603 | 72 | 305 | 1.7 | 6.1 | 0.00 | 0.00 | 0.00 | 52 | 1011.3 |
| 20260503191503 | 72 | 308 | 1.7 | 6.1 | 0.00 | 0.00 | 0.00 | 52 | 1011.3 |
| 20260503191403 | 72 | 309 | 1.7 | 6.1 | 0.00 | 0.00 | 0.00 | 51 | 1011.2 |
| 20260503191303 | 72 | 310 | 1.7 | 6.1 | 0.00 | 0.00 | 0.00 | 50 | 1011.2 |
| 20260503191103 | 72 | 312 | 1.7 | 6.1 | 0.00 | 0.00 | 0.00 | 51 | 1011.3 |
| 20260503191003 | 72 | 313 | 1.7 | 6.1 | 0.00 | 0.00 | 0.00 | 54 | 1011.3 |
| 20260503190903 | 72 | 315 | 1.7 | 6.1 | 0.00 | 0.00 | 0.00 | 51 | 1011.2 |
| 20260503190703 | 72 | 316 | 1.7 | 6.1 | 0.00 | 0.00 | 0.00 | 51 | 1011.2 |
| 20260503190603 | 72 | 315 | 1.7 | 6.1 | 0.00 | 0.00 | 0.00 | 51 | 1011.2 |
| 20260503190503 | 72 | 315 | 1.7 | 6.1 | 0.00 | 0.00 | 0.00 | 50 | 1011.1 |
| 20260503190403 | 72 | 316 | 1.7 | 6.1 | 0.00 | 0.00 | 0.00 | 51 | 1011.1 |
| 20260503190303 | 72 | 315 | 1.7 | 6.1 | 0.00 | 0.00 | 0.00 | 53 | 1011.1 |
| 20260503190204 | 72 | 313 | 1.7 | 4.3 | 0.00 | 0.00 | 0.00 | 51 | 1011.2 |
| 20260503190103 | 72 | 307 | 1.7 | 3.5 | 0.00 | 0.00 | 0.00 | 52 | 1011.2 |
| 20260503190018 | 72 | 307 | 1.7 | 4.3 | 0.00 | 0.00 | 0.00 | 53 | 1011.3 |
| 20260503190003 | 72 | 306 | 1.7 | 6.1 | 0.00 | 0.00 | 0.00 | 53 | 1011.3 |
| 20260503185903 | 72 | 303 | 1.7 | 6.1 | 0.00 | 0.00 | 0.00 | 54 | 1011.4 |
| 20260503185817 | 72 | 303 | 1.7 | 6.1 | 0.00 | 0.00 | 0.00 | 55 | 1011.3 |
| 20260503185703 | 71 | 303 | 1.7 | 6.1 | 0.00 | 0.00 | 0.00 | 53 | 1011.5 |
| 20260503185517 | 71 | 307 | 1.7 | 6.1 | 0.00 | 0.00 | 0.00 | 54 | 1011.5 |
| 20260503185503 | 71 | 308 | 1.7 | 6.1 | 0.00 | 0.00 | 0.00 | 54 | 1011.5 |
| 20260503185404 | 71 | 307 | 1.7 | 6.1 | 0.00 | 0.00 | 0.00 | 53 | 1011.5 |
| 20260503185217 | 71 | 309 | 1.7 | 6.1 | 0.00 | 0.00 | 0.00 | 54 | 1011.5 |
| 20260503185204 | 71 | 309 | 1.7 | 6.1 | 0.00 | 0.00 | 0.00 | 53 | 1011.5 |
| 20260503185103 | 71 | 311 | 1.7 | 6.1 | 0.00 | 0.00 | 0.00 | 53 | 1011.6 |
| 20260503184903 | 71 | 315 | 0.9 | 3.5 | 0.00 | 0.00 | 0.00 | 53 | 1011.5 |
| 20260503184803 | 71 | 316 | 0.9 | 3.5 | 0.00 | 0.00 | 0.00 | 54 | 1011.5 |
| 20260503184703 | 71 | 313 | 1.7 | 3.5 | 0.00 | 0.00 | 0.00 | 55 | 1011.6 |
| 20260503184603 | 71 | 313 | 1.7 | 4.3 | 0.00 | 0.00 | 0.00 | 54 | 1011.6 |
| 20260503184503 | 70 | 308 | 1.7 | 4.3 | 0.00 | 0.00 | 0.00 | 56 | 1011.6 |
| 20260503184403 | 70 | 307 | 1.7 | 5.2 | 0.00 | 0.00 | 0.00 | 56 | 1011.5 |
| 20260503184303 | 70 | 305 | 1.7 | 5.2 | 0.00 | 0.00 | 0.00 | 55 | 1011.6 |
| 20260503184203 | 70 | 305 | 1.7 | 5.2 | 0.00 | 0.00 | 0.00 | 56 | 1011.6 |
| 20260503184104 | 70 | 304 | 1.7 | 5.2 | 0.00 | 0.00 | 0.00 | 56 | 1011.5 |
| 20260503184004 | 70 | 303 | 1.7 | 5.2 | 0.00 | 0.00 | 0.00 | 56 | 1011.6 |
| 20260503183903 | 70 | 302 | 1.7 | 5.2 | 0.00 | 0.00 | 0.00 | 54 | 1011.6 |
| 20260503183803 | 70 | 301 | 1.7 | 5.2 | 0.00 | 0.00 | 0.00 | 54 | 1011.5 |
| 20260503183718 | 70 | 303 | 1.7 | 5.2 | 0.00 | 0.00 | 0.00 | 54 | 1011.5 |
| 20260503183703 | 70 | 304 | 1.7 | 5.2 | 0.00 | 0.00 | 0.00 | 54 | 1011.5 |
| 20260503183603 | 70 | 303 | 1.7 | 5.2 | 0.00 | 0.00 | 0.00 | 54 | 1011.5 |
| 20260503183403 | 70 | 304 | 1.7 | 4.3 | 0.00 | 0.00 | 0.00 | 55 | 1011.6 |
| 20260503183304 | 70 | 307 | 1.7 | 4.3 | 0.00 | 0.00 | 0.00 | 55 | 1011.6 |
| 20260503183203 | 70 | 307 | 1.7 | 4.3 | 0.00 | 0.00 | 0.00 | 56 | 1011.6 |
| 20260503183103 | 70 | 306 | 1.7 | 4.3 | 0.00 | 0.00 | 0.00 | 56 | 1011.6 |
| 20260503183003 | 70 | 306 | 1.7 | 4.3 | 0.00 | 0.00 | 0.00 | 55 | 1011.5 |
| 20260503182917 | 70 | 308 | 1.7 | 4.3 | 0.00 | 0.00 | 0.00 | 54 | 1011.6 |
| 20260503182903 | 70 | 308 | 1.7 | 4.3 | 0.00 | 0.00 | 0.00 | 54 | 1011.5 |
| 20260503182803 | 70 | 310 | 1.7 | 4.3 | 0.00 | 0.00 | 0.00 | 54 | 1011.6 |
| 20260503182718 | 70 | 309 | 1.7 | 3.5 | 0.00 | 0.00 | 0.00 | 55 | 1011.6 |
| 20260503182603 | 70 | 306 | 1.7 | 4.3 | 0.00 | 0.00 | 0.00 | 55 | 1011.6 |
| 20260503182403 | 70 | 312 | 1.7 | 4.3 | 0.00 | 0.00 | 0.00 | 56 | 1011.6 |
| 20260503182305 | 70 | 316 | 1.7 | 4.3 | 0.00 | 0.00 | 0.00 | 55 | 1011.7 |
| 20260503182203 | 70 | 317 | 1.7 | 4.3 | 0.00 | 0.00 | 0.00 | 55 | 1011.6 |
| 20260503182103 | 70 | 321 | 1.7 | 4.3 | 0.00 | 0.00 | 0.00 | 56 | 1011.6 |
| 20260503182003 | 70 | 323 | 1.7 | 4.3 | 0.00 | 0.00 | 0.00 | 56 | 1011.6 |
| 20260503181903 | 70 | 323 | 1.7 | 4.3 | 0.00 | 0.00 | 0.00 | 56 | 1011.6 |
| 20260503181803 | 70 | 325 | 1.7 | 4.3 | 0.00 | 0.00 | 0.00 | 55 | 1011.6 |
| 20260503181703 | 70 | 328 | 1.7 | 4.3 | 0.00 | 0.00 | 0.00 | 56 | 1011.6 |
| 20260503181603 | 70 | 332 | 1.7 | 3.5 | 0.00 | 0.00 | 0.00 | 57 | 1011.6 |
| 20260503181504 | 70 | 330 | 1.7 | 3.5 | 0.00 | 0.00 | 0.00 | 55 | 1011.7 |
| 20260503181403 | 70 | 328 | 1.7 | 3.5 | 0.00 | 0.00 | 0.00 | 54 | 1011.7 |
| 20260503181304 | 70 | 326 | 1.7 | 3.5 | 0.00 | 0.00 | 0.00 | 54 | 1011.6 |
| 20260503181203 | 71 | 327 | 1.7 | 3.5 | 0.00 | 0.00 | 0.00 | 53 | 1011.7 |
| 20260503181103 | 71 | 326 | 1.7 | 3.5 | 0.00 | 0.00 | 0.00 | 53 | 1011.7 |
| 20260503181003 | 71 | 324 | 1.7 | 3.5 | 0.00 | 0.00 | 0.00 | 54 | 1011.6 |
| 20260503180903 | 71 | 320 | 1.7 | 3.5 | 0.00 | 0.00 | 0.00 | 54 | 1011.5 |
| 20260503180803 | 71 | 318 | 1.7 | 3.5 | 0.00 | 0.00 | 0.00 | 53 | 1011.6 |
| 20260503180718 | 72 | 316 | 1.7 | 3.5 | 0.00 | 0.00 | 0.00 | 52 | 1011.7 |
| 20260503180703 | 72 | 316 | 1.7 | 3.5 | 0.00 | 0.00 | 0.00 | 52 | 1011.7 |
| 20260503180604 | 72 | 315 | 0.9 | 3.5 | 0.00 | 0.00 | 0.00 | 51 | 1011.6 |
| 20260503180403 | 72 | 313 | 0.9 | 2.6 | 0.00 | 0.00 | 0.00 | 52 | 1011.6 |
| 20260503180303 | 72 | 308 | 0.9 | 2.6 | 0.00 | 0.00 | 0.00 | 51 | 1011.6 |
| 20260503180203 | 72 | 300 | 0.9 | 2.6 | 0.00 | 0.00 | 0.00 | 52 | 1011.6 |
| 20260503180103 | 72 | 299 | 1.7 | 2.6 | 0.00 | 0.00 | 0.00 | 54 | 1011.7 |
| 20260503180008 | 72 | 303 | 1.7 | 3.5 | 0.00 | 0.00 | 0.00 | 54 | 1011.6 |
| 20260503175903 | 72 | 308 | 1.7 | 3.5 | 0.00 | 0.00 | 0.00 | 52 | 1011.6 |
| 20260503175803 | 72 | 311 | 1.7 | 3.5 | 0.00 | 0.00 | 0.00 | 53 | 1011.6 |
| 20260503175703 | 72 | 311 | 1.7 | 3.5 | 0.00 | 0.00 | 0.00 | 53 | 1011.6 |
| 20260503175604 | 72 | 309 | 1.7 | 3.5 | 0.00 | 0.00 | 0.00 | 53 | 1011.6 |
| 20260503175519 | 72 | 308 | 1.7 | 3.5 | 0.00 | 0.00 | 0.00 | 52 | 1011.5 |
| 20260503175403 | 72 | 307 | 1.7 | 3.5 | 0.00 | 0.00 | 0.00 | 52 | 1011.6 |
| 20260503175318 | 72 | 307 | 1.7 | 3.5 | 0.00 | 0.00 | 0.00 | 51 | 1011.5 |
| 20260503175203 | 73 | 308 | 0.9 | 3.5 | 0.00 | 0.00 | 0.00 | 50 | 1011.5 |
| 20260503175003 | 73 | 304 | 0.9 | 2.6 | 0.00 | 0.00 | 0.00 | 50 | 1011.6 |
| 20260503174904 | 73 | 303 | 0.9 | 2.6 | 0.00 | 0.00 | 0.00 | 51 | 1011.5 |
| 20260503174817 | 73 | 301 | 0.9 | 2.6 | 0.00 | 0.00 | 0.00 | 50 | 1011.6 |
| 20260503174803 | 73 | 300 | 0.9 | 2.6 | 0.00 | 0.00 | 0.00 | 50 | 1011.6 |
| 20260503174718 | 73 | 301 | 0.9 | 2.6 | 0.00 | 0.00 | 0.00 | 50 | 1011.6 |
| 20260503174703 | 73 | 301 | 0.9 | 2.6 | 0.00 | 0.00 | 0.00 | 51 | 1011.6 |
| 20260503174403 | 73 | 308 | 1.7 | 3.5 | 0.00 | 0.00 | 0.00 | 52 | 1011.7 |
| 20260503174303 | 73 | 307 | 1.7 | 3.5 | 0.00 | 0.00 | 0.00 | 51 | 1011.7 |
| 20260503174203 | 73 | 306 | 1.7 | 3.5 | 0.00 | 0.00 | 0.00 | 50 | 1011.6 |
| 20260503174103 | 73 | 304 | 1.7 | 3.5 | 0.00 | 0.00 | 0.00 | 50 | 1011.7 |
| 20260503174003 | 73 | 302 | 1.7 | 3.5 | 0.00 | 0.00 | 0.00 | 49 | 1011.7 |
| 20260503173918 | 74 | 295 | 1.7 | 3.5 | 0.00 | 0.00 | 0.00 | 49 | 1011.7 |
| 20260503173903 | 74 | 294 | 1.7 | 3.5 | 0.00 | 0.00 | 0.00 | 49 | 1011.7 |
| 20260503173803 | 74 | 302 | 1.7 | 4.3 | 0.00 | 0.00 | 0.00 | 48 | 1011.8 |
| 20260503173618 | 74 | 307 | 1.7 | 4.3 | 0.00 | 0.00 | 0.00 | 47 | 1011.7 |
| 20260503173604 | 74 | 304 | 1.7 | 4.3 | 0.00 | 0.00 | 0.00 | 48 | 1011.7 |
| 20260503173517 | 75 | 295 | 1.7 | 4.3 | 0.00 | 0.00 | 0.00 | 48 | 1011.8 |
| 20260503173503 | 75 | 293 | 1.7 | 4.3 | 0.00 | 0.00 | 0.00 | 48 | 1011.8 |
| 20260503173417 | 75 | 290 | 1.7 | 4.3 | 0.00 | 0.00 | 0.00 | 46 | 1011.7 |
| 20260503173103 | 76 | 127 | 0.9 | 4.3 | 0.00 | 0.00 | 0.00 | 45 | 1011.7 |
| 20260503173004 | 76 | 78 | 0.9 | 4.3 | 0.00 | 0.00 | 0.00 | 45 | 1011.8 |
| 20260503172903 | 76 | 8 | 0.9 | 4.3 | 0.00 | 0.00 | 0.00 | 42 | 1011.7 |
| 20260503172819 | 76 | 332 | 0.9 | 4.3 | 0.00 | 0.00 | 0.00 | 42 | 1011.6 |
| 20260503172803 | 76 | 299 | 0.9 | 2.6 | 0.00 | 0.00 | 0.00 | 42 | 1011.7 |
| 20260503172703 | 76 | 295 | 0.0 | 1.7 | 0.00 | 0.00 | 0.00 | 43 | 1011.7 |
| 20260503172504 | 76 | 296 | 0.9 | 1.7 | 0.00 | 0.00 | 0.00 | 46 | 1011.7 |
| 20260503172403 | 76 | 299 | 0.9 | 1.7 | 0.00 | 0.00 | 0.00 | 45 | 1011.7 |
| 20260503172305 | 76 | 311 | 0.9 | 1.7 | 0.00 | 0.00 | 0.00 | 44 | 1011.6 |
| 20260503172203 | 76 | 100 | 0.9 | 3.5 | 0.00 | 0.00 | 0.00 | 44 | 1011.7 |
| 20260503172117 | 75 | 111 | 0.9 | 3.5 | 0.00 | 0.00 | 0.00 | 46 | 1011.7 |
| 20260503172104 | 75 | 108 | 0.9 | 3.5 | 0.00 | 0.00 | 0.00 | 46 | 1011.7 |
| 20260503172004 | 75 | 107 | 0.9 | 3.5 | 0.00 | 0.00 | 0.00 | 45 | 1011.7 |
| 20260503171803 | 75 | 111 | 1.7 | 5.2 | 0.00 | 0.00 | 0.00 | 45 | 1011.6 |
| 20260503171703 | 75 | 117 | 1.7 | 5.2 | 0.00 | 0.00 | 0.00 | 46 | 1011.7 |
| 20260503171603 | 75 | 121 | 1.7 | 5.2 | 0.00 | 0.00 | 0.00 | 45 | 1011.6 |
| 20260503171503 | 75 | 121 | 1.7 | 5.2 | 0.00 | 0.00 | 0.00 | 44 | 1011.6 |
| 20260503171403 | 75 | 121 | 1.7 | 5.2 | 0.00 | 0.00 | 0.00 | 43 | 1011.6 |
| 20260503171303 | 75 | 122 | 1.7 | 5.2 | 0.00 | 0.00 | 0.00 | 43 | 1011.6 |
| 20260503171203 | 75 | 123 | 1.7 | 5.2 | 0.00 | 0.00 | 0.00 | 43 | 1011.7 |
| 20260503171017 | 75 | 123 | 1.7 | 5.2 | 0.00 | 0.00 | 0.00 | 44 | 1011.6 |
| 20260503171004 | 75 | 125 | 1.7 | 5.2 | 0.00 | 0.00 | 0.00 | 44 | 1011.6 |
| 20260503170904 | 75 | 131 | 1.7 | 5.2 | 0.00 | 0.00 | 0.00 | 45 | 1011.6 |
| 20260503170704 | 74 | 125 | 0.9 | 5.2 | 0.00 | 0.00 | 0.00 | 44 | 1011.6 |
| 20260503170604 | 74 | 110 | 0.9 | 5.2 | 0.00 | 0.00 | 0.00 | 46 | 1011.7 |
| 20260503170516 | 74 | 97 | 0.9 | 5.2 | 0.00 | 0.00 | 0.00 | 47 | 1011.7 |
| 20260503170503 | 74 | 94 | 0.9 | 5.2 | 0.00 | 0.00 | 0.00 | 47 | 1011.7 |
| 20260503170403 | 74 | 92 | 0.9 | 5.2 | 0.00 | 0.00 | 0.00 | 45 | 1011.6 |
| 20260503170203 | 74 | 95 | 1.7 | 5.2 | 0.00 | 0.00 | 0.00 | 45 | 1011.6 |
| 20260503170117 | 74 | 87 | 1.7 | 5.2 | 0.00 | 0.00 | 0.00 | 46 | 1011.6 |
| 20260503170103 | 74 | 88 | 1.7 | 5.2 | 0.00 | 0.00 | 0.00 | 45 | 1011.6 |
| 20260503160204 | 66 | 95 | 0.9 | 4.3 | 0.00 | 0.00 | 0.00 | 76 | 1012.1 |
| 20260503160104 | 66 | 93 | 0.9 | 4.3 | 0.00 | 0.00 | 0.00 | 76 | 1012.1 |
| 20260503151003 | 55 | 108 | 0.9 | 3.5 | 0.00 | 0.00 | 0.00 | 89 | 1012.0 |
| 20260503150903 | 55 | 105 | 0.9 | 3.5 | 0.00 | 0.00 | 0.00 | 89 | 1012.0 |
| 20260503150703 | 54 | 104 | 0.0 | 3.5 | 0.00 | 0.00 | 0.00 | 89 | 1012.0 |
| 20260503150603 | 54 | 105 | 0.0 | 3.5 | 0.00 | 0.00 | 0.00 | 89 | 1012.0 |
| 20260503150503 | 54 | 99 | 0.0 | 3.5 | 0.00 | 0.00 | 0.00 | 89 | 1012.0 |
| 20260503150403 | 54 | 96 | 0.0 | 3.5 | 0.00 | 0.00 | 0.00 | 89 | 1012.0 |
| 20260503150303 | 54 | 97 | 0.0 | 3.5 | 0.00 | 0.00 | 0.00 | 89 | 1012.0 |
| 20260503150203 | 53 | 100 | 0.0 | 3.5 | 0.00 | 0.00 | 0.00 | 89 | 1012.0 |
| 20260503140303 | 46 | 113 | 0.0 | 0.9 | 0.00 | 0.00 | 0.00 | 88 | 1011.8 |
| 20260503140203 | 46 | 113 | 0.0 | 0.9 | 0.00 | 0.00 | 0.00 | 88 | 1011.7 |
| 20260503140104 | 46 | 113 | 0.0 | 0.9 | 0.00 | 0.00 | 0.00 | 88 | 1011.8 |
| 20260503131403 | 46 | 113 | 0.0 | 0.9 | 0.00 | 0.00 | 0.00 | 88 | 1011.8 |
| 20260503131303 | 46 | 113 | 0.0 | 0.9 | 0.00 | 0.00 | 0.00 | 88 | 1011.8 |
| 20260503131203 | 46 | 113 | 0.0 | 0.9 | 0.00 | 0.00 | 0.00 | 88 | 1011.8 |
| 20260503131103 | 46 | 113 | 0.0 | 0.9 | 0.00 | 0.00 | 0.00 | 88 | 1011.8 |
| 20260503131003 | 46 | 113 | 0.0 | 0.9 | 0.00 | 0.00 | 0.00 | 88 | 1011.8 |
| 20260503130904 | 46 | 113 | 0.0 | 0.9 | 0.00 | 0.00 | 0.00 | 88 | 1011.9 |
| 20260503130817 | 46 | 113 | 0.0 | 0.9 | 0.00 | 0.00 | 0.00 | 88 | 1011.8 |
| 20260503130803 | 46 | 113 | 0.0 | 0.9 | 0.00 | 0.00 | 0.00 | 88 | 1011.8 |
| 20260503130703 | 46 | 113 | 0.0 | 0.9 | 0.00 | 0.00 | 0.00 | 88 | 1011.8 |
| 20260503130503 | 45 | 113 | 0.0 | 1.7 | 0.00 | 0.00 | 0.00 | 88 | 1011.8 |
| 20260503130403 | 46 | 113 | 0.0 | 1.7 | 0.00 | 0.00 | 0.00 | 88 | 1011.9 |
| 20260503130303 | 46 | 113 | 0.0 | 1.7 | 0.00 | 0.00 | 0.00 | 88 | 1011.9 |
| 20260503130217 | 46 | 113 | 0.0 | 1.7 | 0.00 | 0.00 | 0.00 | 88 | 1011.9 |
| 20260503130203 | 46 | 113 | 0.0 | 1.7 | 0.00 | 0.00 | 0.00 | 88 | 1011.9 |
| 20260503130103 | 46 | 113 | 0.0 | 1.7 | 0.00 | 0.00 | 0.00 | 88 | 1012.0 |
| 20260503110803 | 46 | 99 | 0.0 | 1.7 | 0.00 | 0.00 | 0.00 | 87 | 1012.2 |
| 20260503110719 | 46 | 102 | 0.0 | 1.7 | 0.00 | 0.00 | 0.00 | 87 | 1012.2 |
| 20260503110703 | 46 | 100 | 0.0 | 1.7 | 0.00 | 0.00 | 0.00 | 87 | 1012.2 |
| 20260503110603 | 46 | 97 | 0.0 | 0.9 | 0.00 | 0.00 | 0.00 | 87 | 1012.2 |
| 20260503110403 | 46 | 113 | 0.0 | 0.9 | 0.00 | 0.00 | 0.00 | 88 | 1012.2 |
| 20260503110303 | 46 | 113 | 0.0 | 0.9 | 0.00 | 0.00 | 0.00 | 87 | 1012.2 |
| 20260503110203 | 46 | 113 | 0.0 | 0.9 | 0.00 | 0.00 | 0.00 | 87 | 1012.3 |
| 20260503100220 | 46 | 113 | 0.9 | 1.7 | 0.00 | 0.00 | 0.00 | 87 | 1012.4 |
| 20260503100203 | 46 | 114 | 0.0 | 1.7 | 0.00 | 0.00 | 0.00 | 87 | 1012.3 |
| 20260503100103 | 46 | 115 | 0.0 | 1.7 | 0.00 | 0.00 | 0.00 | 87 | 1012.3 |
| 20260503090503 | 47 | 116 | 0.0 | 0.9 | 0.00 | 0.00 | 0.00 | 87 | 1012.8 |
| 20260503090403 | 47 | 116 | 0.0 | 0.9 | 0.00 | 0.00 | 0.00 | 87 | 1012.8 |
| 20260503090303 | 47 | 116 | 0.0 | 0.9 | 0.00 | 0.00 | 0.00 | 87 | 1012.8 |
| 20260503081603 | 47 | 0 | 0.0 | 0.0 | 0.00 | 0.00 | 0.00 | 87 | 1012.8 |
| 20260503081403 | 47 | 0 | 0.0 | 0.0 | 0.00 | 0.00 | 0.00 | 87 | 1012.8 |
| 20260503081303 | 47 | 0 | 0.0 | 0.0 | 0.00 | 0.00 | 0.00 | 87 | 1012.8 |
| 20260503081103 | 47 | 0 | 0.0 | 0.0 | 0.00 | 0.00 | 0.00 | 87 | 1012.8 |
| 20260503081003 | 47 | 0 | 0.0 | 0.0 | 0.00 | 0.00 | 0.00 | 87 | 1012.9 |
| 20260503080903 | 48 | 0 | 0.0 | 0.0 | 0.00 | 0.00 | 0.00 | 87 | 1012.8 |
| 20260503080804 | 48 | 0 | 0.0 | 0.0 | 0.00 | 0.00 | 0.00 | 87 | 1012.9 |
| 20260503080703 | 48 | 0 | 0.0 | 0.0 | 0.00 | 0.00 | 0.00 | 87 | 1012.8 |
| 20260503080603 | 48 | 0 | 0.0 | 0.0 | 0.00 | 0.00 | 0.00 | 87 | 1012.8 |
| 20260503080503 | 48 | 0 | 0.0 | 0.0 | 0.00 | 0.00 | 0.00 | 87 | 1012.9 |
| 20260503080403 | 48 | 0 | 0.0 | 0.0 | 0.00 | 0.00 | 0.00 | 87 | 1012.8 |
| 20260503080303 | 48 | 0 | 0.0 | 0.0 | 0.00 | 0.00 | 0.00 | 87 | 1012.8 |
| 20260503080203 | 48 | 0 | 0.0 | 0.0 | 0.00 | 0.00 | 0.00 | 87 | 1012.9 |
| 20260503072903 | 48 | 0 | 0.0 | 0.0 | 0.00 | 0.00 | 0.00 | 87 | 1012.9 |
| 20260503072803 | 48 | 0 | 0.0 | 0.0 | 0.00 | 0.00 | 0.00 | 87 | 1012.9 |
| 20260503072703 | 48 | 0 | 0.0 | 0.0 | 0.00 | 0.00 | 0.00 | 87 | 1012.9 |
| 20260503072504 | 48 | 0 | 0.0 | 0.0 | 0.00 | 0.00 | 0.00 | 87 | 1012.8 |
| 20260503072403 | 48 | 0 | 0.0 | 0.0 | 0.00 | 0.00 | 0.00 | 87 | 1012.8 |
| 20260503072318 | 48 | 0 | 0.0 | 0.0 | 0.00 | 0.00 | 0.00 | 87 | 1012.9 |
| 20260503072203 | 48 | 0 | 0.0 | 0.0 | 0.00 | 0.00 | 0.00 | 87 | 1012.9 |
| 20260503072119 | 48 | 0 | 0.0 | 0.0 | 0.00 | 0.00 | 0.00 | 87 | 1012.9 |
| 20260503072004 | 48 | 0 | 0.0 | 0.0 | 0.00 | 0.00 | 0.00 | 87 | 1012.8 |
| 20260503071803 | 48 | 0 | 0.0 | 0.0 | 0.00 | 0.00 | 0.00 | 87 | 1012.8 |
| 20260503071703 | 48 | 0 | 0.0 | 0.0 | 0.00 | 0.00 | 0.00 | 87 | 1012.8 |
| 20260503071605 | 48 | 0 | 0.0 | 0.0 | 0.00 | 0.00 | 0.00 | 87 | 1012.9 |
| 20260503071504 | 48 | 0 | 0.0 | 0.0 | 0.00 | 0.00 | 0.00 | 87 | 1012.8 |
| 20260503071417 | 48 | 0 | 0.0 | 0.0 | 0.00 | 0.00 | 0.00 | 87 | 1012.8 |
| 20260503071303 | 48 | 116 | 0.0 | 0.9 | 0.00 | 0.00 | 0.00 | 87 | 1012.8 |
| 20260503071103 | 48 | 116 | 0.0 | 0.9 | 0.00 | 0.00 | 0.00 | 87 | 1012.8 |
| 20260503071004 | 48 | 116 | 0.0 | 0.9 | 0.00 | 0.00 | 0.00 | 87 | 1012.8 |
| 20260503070903 | 48 | 116 | 0.0 | 0.9 | 0.00 | 0.00 | 0.00 | 87 | 1012.8 |
| 20260503070803 | 48 | 116 | 0.0 | 0.9 | 0.00 | 0.00 | 0.00 | 87 | 1012.7 |
| 20260503070703 | 48 | 116 | 0.0 | 0.9 | 0.00 | 0.00 | 0.00 | 87 | 1012.8 |
| 20260503070603 | 48 | 98 | 0.0 | 1.7 | 0.00 | 0.00 | 0.00 | 87 | 1012.8 |
| 20260503070403 | 48 | 97 | 0.0 | 1.7 | 0.00 | 0.00 | 0.00 | 87 | 1012.8 |
| 20260503070303 | 48 | 96 | 0.0 | 1.7 | 0.00 | 0.00 | 0.00 | 87 | 1012.8 |
| 20260503070218 | 48 | 96 | 0.0 | 1.7 | 0.00 | 0.00 | 0.00 | 87 | 1012.8 |
| 20260503070203 | 48 | 96 | 0.0 | 1.7 | 0.00 | 0.00 | 0.00 | 87 | 1012.7 |
| 20260503060303 | 49 | 112 | 0.9 | 1.7 | 0.00 | 0.00 | 0.00 | 87 | 1012.9 |
| 20260503060204 | 49 | 112 | 0.9 | 1.7 | 0.00 | 0.00 | 0.00 | 87 | 1012.8 |
| 20260503060103 | 49 | 112 | 0.0 | 1.7 | 0.00 | 0.00 | 0.00 | 87 | 1012.8 |
| 20260503055104 | 49 | 111 | 0.0 | 0.9 | 0.00 | 0.00 | 0.00 | 87 | 1012.9 |
| 20260503055003 | 49 | 111 | 0.0 | 0.9 | 0.00 | 0.00 | 0.00 | 87 | 1012.9 |
| 20260503054903 | 49 | 111 | 0.0 | 0.9 | 0.00 | 0.00 | 0.00 | 87 | 1012.9 |
| 20260503054803 | 49 | 111 | 0.0 | 0.9 | 0.00 | 0.00 | 0.00 | 87 | 1012.9 |
| 20260503054603 | 49 | 111 | 0.0 | 0.9 | 0.00 | 0.00 | 0.00 | 87 | 1012.8 |
| 20260503054503 | 49 | 111 | 0.0 | 0.9 | 0.00 | 0.00 | 0.00 | 87 | 1012.9 |
| 20260503054403 | 49 | 111 | 0.0 | 0.9 | 0.00 | 0.00 | 0.00 | 87 | 1012.9 |
| 20260503054203 | 49 | 111 | 0.0 | 0.9 | 0.00 | 0.00 | 0.00 | 87 | 1012.9 |
| 20260503054116 | 49 | 111 | 0.0 | 0.9 | 0.00 | 0.00 | 0.00 | 87 | 1012.9 |
| 20260503054103 | 49 | 111 | 0.0 | 0.9 | 0.00 | 0.00 | 0.00 | 87 | 1012.8 |
| 20260503054003 | 49 | 111 | 0.0 | 0.9 | 0.00 | 0.00 | 0.00 | 87 | 1012.9 |
| 20260503053803 | 49 | 111 | 0.0 | 0.9 | 0.00 | 0.00 | 0.00 | 87 | 1012.9 |
| 20260503053703 | 49 | 111 | 0.0 | 0.9 | 0.00 | 0.00 | 0.00 | 87 | 1012.9 |
| 20260503053603 | 49 | 111 | 0.0 | 0.9 | 0.00 | 0.00 | 0.00 | 87 | 1012.9 |
| 20260503053503 | 49 | 111 | 0.0 | 0.9 | 0.00 | 0.00 | 0.00 | 87 | 1012.8 |
| 20260503053303 | 49 | 111 | 0.0 | 0.9 | 0.00 | 0.00 | 0.00 | 87 | 1012.9 |
| 20260503053203 | 49 | 111 | 0.0 | 0.9 | 0.00 | 0.00 | 0.00 | 87 | 1012.8 |
| 20260503053104 | 49 | 111 | 0.0 | 0.9 | 0.00 | 0.00 | 0.00 | 87 | 1012.9 |
| 20260503053003 | 49 | 111 | 0.0 | 0.9 | 0.00 | 0.00 | 0.00 | 87 | 1012.9 |
| 20260503052903 | 49 | 111 | 0.0 | 0.9 | 0.00 | 0.00 | 0.00 | 87 | 1012.9 |
| 20260503052804 | 49 | 111 | 0.0 | 0.9 | 0.00 | 0.00 | 0.00 | 87 | 1012.9 |
| 20260503052703 | 49 | 111 | 0.0 | 0.9 | 0.00 | 0.00 | 0.00 | 87 | 1012.8 |
| 20260503052618 | 49 | 111 | 0.0 | 0.9 | 0.00 | 0.00 | 0.00 | 87 | 1012.8 |
| 20260503052603 | 49 | 111 | 0.0 | 0.9 | 0.00 | 0.00 | 0.00 | 87 | 1012.9 |
| 20260503052503 | 49 | 0 | 0.0 | 0.0 | 0.00 | 0.00 | 0.00 | 87 | 1012.8 |
| 20260503052305 | 49 | 0 | 0.0 | 0.0 | 0.00 | 0.00 | 0.00 | 87 | 1012.8 |
| 20260503052203 | 49 | 0 | 0.0 | 0.0 | 0.00 | 0.00 | 0.00 | 87 | 1012.7 |
| 20260503052103 | 50 | 0 | 0.0 | 0.0 | 0.00 | 0.00 | 0.00 | 87 | 1012.8 |
| 20260503052003 | 50 | 0 | 0.0 | 0.0 | 0.00 | 0.00 | 0.00 | 87 | 1012.8 |
| 20260503051903 | 50 | 0 | 0.0 | 0.0 | 0.00 | 0.00 | 0.00 | 87 | 1012.7 |
| 20260503051803 | 50 | 0 | 0.0 | 0.0 | 0.00 | 0.00 | 0.00 | 87 | 1012.8 |
| 20260503051703 | 50 | 0 | 0.0 | 0.0 | 0.00 | 0.00 | 0.00 | 87 | 1012.8 |
| 20260503051503 | 50 | 0 | 0.0 | 0.0 | 0.00 | 0.00 | 0.00 | 87 | 1012.7 |
| 20260503051403 | 50 | 0 | 0.0 | 0.0 | 0.00 | 0.00 | 0.00 | 87 | 1012.7 |
| 20260503051203 | 50 | 0 | 0.0 | 0.0 | 0.00 | 0.00 | 0.00 | 87 | 1012.7 |
| 20260503051103 | 50 | 0 | 0.0 | 0.0 | 0.00 | 0.00 | 0.00 | 87 | 1012.7 |
| 20260503051004 | 50 | 0 | 0.0 | 0.0 | 0.00 | 0.00 | 0.00 | 87 | 1012.7 |
| 20260503050903 | 50 | 0 | 0.0 | 0.0 | 0.00 | 0.00 | 0.00 | 87 | 1012.8 |
| 20260503050603 | 50 | 0 | 0.0 | 0.0 | 0.00 | 0.00 | 0.00 | 87 | 1012.7 |
| 20260503050503 | 50 | 0 | 0.0 | 0.0 | 0.00 | 0.00 | 0.00 | 87 | 1012.7 |
| 20260503050404 | 50 | 0 | 0.0 | 0.0 | 0.00 | 0.00 | 0.00 | 87 | 1012.7 |
| 20260503050319 | 50 | 0 | 0.0 | 0.0 | 0.00 | 0.00 | 0.00 | 87 | 1012.7 |
| 20260503050118 | 50 | 0 | 0.0 | 0.0 | 0.00 | 0.00 | 0.00 | 87 | 1012.7 |
| 20260503050005 | 50 | 0 | 0.0 | 0.0 | 0.00 | 0.00 | 0.00 | 87 | 1012.8 |
| 20260503045705 | 50 | 0 | 0.0 | 0.0 | 0.00 | 0.00 | 0.00 | 87 | 1012.7 |
| 20260503045604 | 50 | 0 | 0.0 | 0.0 | 0.00 | 0.00 | 0.00 | 87 | 1012.8 |
| 20260503045504 | 50 | 0 | 0.0 | 0.0 | 0.00 | 0.00 | 0.00 | 87 | 1012.7 |
| 20260503045405 | 50 | 0 | 0.0 | 0.0 | 0.00 | 0.00 | 0.00 | 87 | 1012.7 |
| 20260503045305 | 50 | 0 | 0.0 | 0.0 | 0.00 | 0.00 | 0.00 | 87 | 1012.7 |
| 20260503045103 | 50 | 0 | 0.0 | 0.0 | 0.00 | 0.00 | 0.00 | 87 | 1012.7 |
| 20260503045004 | 50 | 0 | 0.0 | 0.0 | 0.00 | 0.00 | 0.00 | 87 | 1012.7 |
| 20260503044903 | 50 | 111 | 0.0 | 0.9 | 0.00 | 0.00 | 0.00 | 87 | 1012.7 |
| 20260503044803 | 50 | 111 | 0.0 | 0.9 | 0.00 | 0.00 | 0.00 | 87 | 1012.7 |
| 20260503044703 | 50 | 111 | 0.0 | 0.9 | 0.00 | 0.00 | 0.00 | 87 | 1012.7 |
| 20260503044619 | 50 | 111 | 0.0 | 0.9 | 0.00 | 0.00 | 0.00 | 87 | 1012.7 |
| 20260503044603 | 50 | 111 | 0.0 | 0.9 | 0.00 | 0.00 | 0.00 | 87 | 1012.8 |
| 20260503044503 | 50 | 111 | 0.0 | 0.9 | 0.00 | 0.00 | 0.00 | 87 | 1012.7 |
| 20260503044305 | 50 | 111 | 0.0 | 0.9 | 0.00 | 0.00 | 0.00 | 87 | 1012.8 |
| 20260503044205 | 50 | 111 | 0.0 | 0.9 | 0.00 | 0.00 | 0.00 | 87 | 1012.7 |
| 20260503044103 | 51 | 111 | 0.0 | 0.9 | 0.00 | 0.00 | 0.00 | 87 | 1012.7 |
| 20260503044003 | 51 | 111 | 0.0 | 0.9 | 0.00 | 0.00 | 0.00 | 87 | 1012.7 |
| 20260503043905 | 51 | 111 | 0.0 | 0.9 | 0.00 | 0.00 | 0.00 | 87 | 1012.7 |
| 20260503043803 | 51 | 111 | 0.0 | 0.9 | 0.00 | 0.00 | 0.00 | 87 | 1012.8 |
| 20260503043704 | 51 | 0 | 0.0 | 0.0 | 0.00 | 0.00 | 0.00 | 87 | 1012.7 |
| 20260503043603 | 51 | 0 | 0.0 | 0.0 | 0.00 | 0.00 | 0.00 | 87 | 1012.7 |
| 20260503043505 | 51 | 0 | 0.0 | 0.0 | 0.00 | 0.00 | 0.00 | 87 | 1012.7 |
| 20260503043403 | 51 | 0 | 0.0 | 0.0 | 0.00 | 0.00 | 0.00 | 87 | 1012.7 |
| 20260503043104 | 51 | 107 | 0.0 | 1.7 | 0.00 | 0.00 | 0.00 | 87 | 1012.6 |
| 20260503043003 | 51 | 81 | 0.0 | 1.7 | 0.00 | 0.00 | 0.00 | 87 | 1012.6 |
| 20260503042903 | 51 | 310 | 0.0 | 1.7 | 0.00 | 0.00 | 0.00 | 87 | 1012.6 |
| 20260503042803 | 51 | 303 | 0.0 | 1.7 | 0.00 | 0.00 | 0.00 | 87 | 1012.6 |
| 20260503042703 | 51 | 306 | 0.0 | 1.7 | 0.00 | 0.00 | 0.00 | 87 | 1012.6 |
| 20260503042603 | 51 | 306 | 0.0 | 1.7 | 0.00 | 0.00 | 0.00 | 87 | 1012.7 |
| 20260503042503 | 51 | 307 | 0.0 | 1.7 | 0.00 | 0.00 | 0.00 | 87 | 1012.6 |
| 20260503042403 | 51 | 311 | 0.0 | 1.7 | 0.00 | 0.00 | 0.00 | 87 | 1012.6 |
| 20260503042305 | 51 | 315 | 0.0 | 1.7 | 0.00 | 0.00 | 0.00 | 87 | 1012.6 |
| 20260503042203 | 51 | 314 | 0.0 | 1.7 | 0.00 | 0.00 | 0.00 | 87 | 1012.6 |
| 20260503042103 | 51 | 310 | 0.0 | 1.7 | 0.00 | 0.00 | 0.00 | 87 | 1012.7 |
| 20260503042004 | 51 | 315 | 0.0 | 1.7 | 0.00 | 0.00 | 0.00 | 87 | 1012.6 |
| 20260503041905 | 51 | 318 | 0.0 | 1.7 | 0.00 | 0.00 | 0.00 | 87 | 1012.6 |
| 20260503041803 | 51 | 323 | 0.0 | 1.7 | 0.00 | 0.00 | 0.00 | 87 | 1012.6 |
| 20260503041705 | 51 | 338 | 0.0 | 1.7 | 0.00 | 0.00 | 0.00 | 87 | 1012.7 |
| 20260503041603 | 51 | 345 | 0.0 | 2.6 | 0.00 | 0.00 | 0.00 | 87 | 1012.7 |
| 20260503041504 | 51 | 341 | 0.0 | 2.6 | 0.00 | 0.00 | 0.00 | 87 | 1012.6 |
| 20260503041403 | 51 | 335 | 0.0 | 2.6 | 0.00 | 0.00 | 0.00 | 87 | 1012.6 |
| 20260503041304 | 51 | 310 | 0.9 | 2.6 | 0.00 | 0.00 | 0.00 | 87 | 1012.6 |
| 20260503041203 | 51 | 328 | 0.9 | 2.6 | 0.00 | 0.00 | 0.00 | 87 | 1012.6 |
| 20260503041118 | 51 | 329 | 0.9 | 2.6 | 0.00 | 0.00 | 0.00 | 87 | 1012.6 |
| 20260503041103 | 51 | 328 | 0.9 | 2.6 | 0.00 | 0.00 | 0.00 | 87 | 1012.6 |
| 20260503040803 | 51 | 320 | 0.9 | 2.6 | 0.00 | 0.00 | 0.00 | 87 | 1012.6 |
| 20260503040703 | 51 | 315 | 0.9 | 2.6 | 0.00 | 0.00 | 0.00 | 87 | 1012.5 |
| 20260503040604 | 51 | 323 | 0.9 | 3.5 | 0.00 | 0.00 | 0.00 | 87 | 1012.5 |
| 20260503040503 | 51 | 323 | 0.9 | 3.5 | 0.00 | 0.00 | 0.00 | 87 | 1012.5 |
| 20260503040404 | 51 | 322 | 0.9 | 3.5 | 0.00 | 0.00 | 0.00 | 87 | 1012.5 |
| 20260503040303 | 51 | 330 | 0.9 | 3.5 | 0.00 | 0.00 | 0.00 | 87 | 1012.4 |
| 20260503040204 | 51 | 322 | 0.9 | 3.5 | 0.00 | 0.00 | 0.00 | 87 | 1012.5 |
| 20260503040103 | 51 | 318 | 0.9 | 3.5 | 0.00 | 0.00 | 0.00 | 87 | 1012.4 |
| 20260503040004 | 51 | 319 | 0.9 | 3.5 | 0.00 | 0.00 | 0.00 | 87 | 1012.5 |
| 20260503035903 | 51 | 315 | 0.9 | 3.5 | 0.00 | 0.00 | 0.00 | 87 | 1012.5 |
| 20260503035804 | 51 | 315 | 0.9 | 3.5 | 0.00 | 0.00 | 0.00 | 87 | 1012.4 |
| 20260503035703 | 51 | 314 | 0.9 | 3.5 | 0.00 | 0.00 | 0.00 | 87 | 1012.5 |
| 20260503035617 | 51 | 304 | 0.9 | 3.5 | 0.00 | 0.00 | 0.00 | 87 | 1012.5 |
| 20260503035604 | 51 | 304 | 0.9 | 3.5 | 0.00 | 0.00 | 0.00 | 87 | 1012.4 |
| 20260503035503 | 51 | 304 | 0.9 | 3.5 | 0.00 | 0.00 | 0.00 | 87 | 1012.4 |
| 20260503035203 | 51 | 304 | 0.9 | 3.5 | 0.00 | 0.00 | 0.00 | 87 | 1012.3 |
| 20260503035103 | 51 | 305 | 0.9 | 3.5 | 0.00 | 0.00 | 0.00 | 87 | 1012.2 |
| 20260503035004 | 51 | 301 | 0.9 | 2.6 | 0.00 | 0.00 | 0.00 | 87 | 1012.3 |
| 20260503034903 | 51 | 304 | 0.9 | 2.6 | 0.00 | 0.00 | 0.00 | 87 | 1012.3 |
| 20260503034803 | 51 | 303 | 0.9 | 2.6 | 0.00 | 0.00 | 0.00 | 87 | 1012.3 |
| 20260503034704 | 51 | 305 | 0.9 | 2.6 | 0.00 | 0.00 | 0.00 | 87 | 1012.3 |
| 20260503034617 | 51 | 306 | 0.9 | 2.6 | 0.00 | 0.00 | 0.00 | 87 | 1012.3 |
| 20260503034603 | 51 | 307 | 0.9 | 2.6 | 0.00 | 0.00 | 0.00 | 87 | 1012.3 |
| 20260503034303 | 51 | 306 | 0.9 | 3.5 | 0.00 | 0.00 | 0.00 | 87 | 1012.2 |
| 20260503034204 | 51 | 305 | 0.9 | 3.5 | 0.00 | 0.00 | 0.00 | 87 | 1012.3 |
| 20260503034103 | 51 | 306 | 0.9 | 3.5 | 0.00 | 0.00 | 0.00 | 87 | 1012.3 |
| 20260503034003 | 51 | 306 | 0.9 | 3.5 | 0.00 | 0.00 | 0.00 | 87 | 1012.3 |
| 20260503033903 | 51 | 303 | 0.9 | 3.5 | 0.00 | 0.00 | 0.00 | 87 | 1012.3 |
| 20260503033804 | 51 | 305 | 0.9 | 3.5 | 0.00 | 0.00 | 0.00 | 87 | 1012.4 |
| 20260503033703 | 51 | 303 | 0.9 | 3.5 | 0.00 | 0.00 | 0.00 | 87 | 1012.4 |
| 20260503033603 | 51 | 303 | 0.9 | 4.3 | 0.00 | 0.00 | 0.00 | 87 | 1012.3 |
| 20260503033518 | 51 | 302 | 0.9 | 4.3 | 0.00 | 0.00 | 0.00 | 87 | 1012.3 |
| 20260503033503 | 51 | 302 | 0.9 | 4.3 | 0.00 | 0.00 | 0.00 | 87 | 1012.4 |
| 20260503033403 | 51 | 300 | 0.9 | 4.3 | 0.00 | 0.00 | 0.00 | 87 | 1012.4 |
| 20260503033217 | 51 | 298 | 0.9 | 4.3 | 0.00 | 0.00 | 0.00 | 87 | 1012.5 |
| 20260503033203 | 51 | 299 | 0.9 | 4.3 | 0.00 | 0.00 | 0.00 | 87 | 1012.5 |
| 20260503033103 | 51 | 300 | 0.9 | 4.3 | 0.00 | 0.00 | 0.00 | 87 | 1012.4 |
| 20260503032903 | 51 | 300 | 0.9 | 4.3 | 0.00 | 0.00 | 0.00 | 86 | 1012.3 |
| 20260503032803 | 52 | 300 | 0.9 | 4.3 | 0.00 | 0.00 | 0.00 | 86 | 1012.3 |
| 20260503032703 | 52 | 299 | 0.9 | 4.3 | 0.00 | 0.00 | 0.00 | 86 | 1012.3 |
| 20260503032617 | 52 | 299 | 0.9 | 4.3 | 0.00 | 0.00 | 0.00 | 86 | 1012.2 |
| 20260503032604 | 52 | 299 | 0.9 | 3.5 | 0.00 | 0.00 | 0.00 | 86 | 1012.2 |
| 20260503032503 | 52 | 301 | 0.9 | 2.6 | 0.00 | 0.00 | 0.00 | 86 | 1012.3 |
| 20260503032418 | 52 | 304 | 0.9 | 2.6 | 0.00 | 0.00 | 0.00 | 86 | 1012.3 |
| 20260503032304 | 52 | 306 | 0.9 | 3.5 | 0.00 | 0.00 | 0.00 | 86 | 1012.4 |
| 20260503032103 | 52 | 308 | 1.7 | 3.5 | 0.00 | 0.00 | 0.00 | 86 | 1012.4 |
| 20260503032003 | 52 | 308 | 1.7 | 3.5 | 0.00 | 0.00 | 0.00 | 86 | 1012.4 |
| 20260503031903 | 52 | 310 | 1.7 | 3.5 | 0.00 | 0.00 | 0.00 | 86 | 1012.4 |
| 20260503031803 | 52 | 310 | 0.9 | 4.3 | 0.00 | 0.00 | 0.00 | 86 | 1012.4 |
| 20260503031617 | 52 | 313 | 0.9 | 4.3 | 0.00 | 0.00 | 0.00 | 86 | 1012.3 |
| 20260503031603 | 52 | 313 | 0.9 | 4.3 | 0.00 | 0.00 | 0.00 | 86 | 1012.4 |
| 20260503031503 | 52 | 312 | 0.9 | 4.3 | 0.00 | 0.00 | 0.00 | 86 | 1012.3 |
| 20260503031418 | 52 | 310 | 0.9 | 4.3 | 0.00 | 0.00 | 0.00 | 86 | 1012.3 |
| 20260503031303 | 52 | 310 | 0.9 | 4.3 | 0.00 | 0.00 | 0.00 | 86 | 1012.3 |
| 20260503031103 | 52 | 311 | 0.9 | 4.3 | 0.00 | 0.00 | 0.00 | 86 | 1012.3 |
| 20260503031003 | 52 | 311 | 0.9 | 4.3 | 0.00 | 0.00 | 0.00 | 86 | 1012.2 |
| 20260503030904 | 52 | 312 | 0.9 | 4.3 | 0.00 | 0.00 | 0.00 | 86 | 1012.2 |
| 20260503030803 | 52 | 313 | 0.9 | 3.5 | 0.00 | 0.00 | 0.00 | 86 | 1012.2 |
| 20260503030603 | 52 | 313 | 0.9 | 2.6 | 0.00 | 0.00 | 0.00 | 86 | 1012.1 |
| 20260503030503 | 52 | 311 | 0.9 | 2.6 | 0.00 | 0.00 | 0.00 | 86 | 1012.2 |
| 20260503030403 | 52 | 310 | 0.9 | 2.6 | 0.00 | 0.00 | 0.00 | 86 | 1012.2 |
| 20260503030319 | 52 | 310 | 0.9 | 2.6 | 0.00 | 0.00 | 0.00 | 86 | 1012.2 |
| 20260503030303 | 52 | 309 | 0.9 | 2.6 | 0.00 | 0.00 | 0.00 | 86 | 1012.2 |
| 20260503030203 | 52 | 304 | 0.9 | 2.6 | 0.00 | 0.00 | 0.00 | 86 | 1012.2 |
| 20260503030004 | 52 | 301 | 0.9 | 2.6 | 0.00 | 0.00 | 0.00 | 86 | 1012.2 |
| 20260503025903 | 52 | 300 | 0.9 | 2.6 | 0.00 | 0.00 | 0.00 | 86 | 1012.2 |
| 20260503025818 | 52 | 299 | 0.9 | 2.6 | 0.00 | 0.00 | 0.00 | 86 | 1012.2 |
| 20260503025803 | 52 | 298 | 0.9 | 2.6 | 0.00 | 0.00 | 0.00 | 86 | 1012.2 |
| 20260503025703 | 52 | 290 | 0.9 | 2.6 | 0.00 | 0.00 | 0.00 | 86 | 1012.2 |
| 20260503025503 | 52 | 288 | 0.9 | 2.6 | 0.00 | 0.00 | 0.00 | 86 | 1012.1 |
| 20260503025403 | 52 | 288 | 0.9 | 3.5 | 0.00 | 0.00 | 0.00 | 86 | 1012.1 |
| 20260503025305 | 52 | 294 | 0.9 | 3.5 | 0.00 | 0.00 | 0.00 | 86 | 1012.2 |
| 20260503025217 | 52 | 299 | 0.9 | 3.5 | 0.00 | 0.00 | 0.00 | 86 | 1012.1 |
| 20260503025203 | 52 | 301 | 0.9 | 3.5 | 0.00 | 0.00 | 0.00 | 86 | 1012.1 |
| 20260503025103 | 52 | 307 | 0.9 | 3.5 | 0.00 | 0.00 | 0.00 | 86 | 1012.2 |
| 20260503024903 | 52 | 309 | 0.9 | 3.5 | 0.00 | 0.00 | 0.00 | 86 | 1012.1 |
| 20260503024803 | 52 | 312 | 0.9 | 4.3 | 0.00 | 0.00 | 0.00 | 86 | 1012.0 |
| 20260503024718 | 52 | 315 | 0.9 | 4.3 | 0.00 | 0.00 | 0.00 | 86 | 1012.1 |
| 20260503024703 | 52 | 315 | 1.7 | 4.3 | 0.00 | 0.00 | 0.00 | 86 | 1012.1 |
| 20260503024603 | 52 | 314 | 1.7 | 4.3 | 0.00 | 0.00 | 0.00 | 86 | 1012.1 |
| 20260503024404 | 52 | 316 | 1.7 | 7.0 | 0.00 | 0.00 | 0.00 | 86 | 1012.1 |
| 20260503024304 | 52 | 312 | 1.7 | 7.0 | 0.00 | 0.00 | 0.00 | 86 | 1012.1 |
| 20260503024219 | 52 | 311 | 1.7 | 7.0 | 0.00 | 0.00 | 0.00 | 86 | 1012.1 |
| 20260503024204 | 52 | 309 | 1.7 | 7.0 | 0.00 | 0.00 | 0.00 | 86 | 1012.0 |
| 20260503024103 | 52 | 308 | 1.7 | 7.0 | 0.00 | 0.00 | 0.00 | 86 | 1012.0 |
| 20260503023903 | 52 | 306 | 1.7 | 7.0 | 0.00 | 0.00 | 0.00 | 86 | 1012.0 |
| 20260503023804 | 52 | 304 | 1.7 | 7.0 | 0.00 | 0.00 | 0.00 | 86 | 1012.0 |
| 20260503023704 | 52 | 303 | 1.7 | 7.0 | 0.00 | 0.00 | 0.00 | 86 | 1012.1 |
| 20260503023604 | 52 | 304 | 1.7 | 7.0 | 0.00 | 0.00 | 0.00 | 86 | 1012.1 |
| 20260503023503 | 52 | 305 | 1.7 | 6.1 | 0.00 | 0.00 | 0.00 | 86 | 1012.0 |
| 20260503023405 | 52 | 301 | 1.7 | 6.1 | 0.00 | 0.00 | 0.00 | 86 | 1012.0 |
| 20260503023303 | 52 | 302 | 1.7 | 6.1 | 0.00 | 0.00 | 0.00 | 86 | 1012.0 |
| 20260503023205 | 52 | 301 | 1.7 | 5.2 | 0.00 | 0.00 | 0.00 | 86 | 1012.0 |
| 20260503023103 | 52 | 300 | 1.7 | 5.2 | 0.00 | 0.00 | 0.00 | 86 | 1012.0 |
| 20260503023003 | 52 | 300 | 1.7 | 5.2 | 0.00 | 0.00 | 0.00 | 86 | 1012.0 |
| 20260503022903 | 52 | 303 | 1.7 | 5.2 | 0.00 | 0.00 | 0.00 | 86 | 1012.0 |
| 20260503022803 | 52 | 307 | 1.7 | 5.2 | 0.00 | 0.00 | 0.00 | 86 | 1012.0 |
| 20260503022703 | 52 | 309 | 1.7 | 5.2 | 0.00 | 0.00 | 0.00 | 86 | 1012.1 |
| 20260503022604 | 53 | 311 | 1.7 | 5.2 | 0.00 | 0.00 | 0.00 | 86 | 1012.0 |
| 20260503022503 | 52 | 308 | 1.7 | 5.2 | 0.00 | 0.00 | 0.00 | 86 | 1012.0 |
| 20260503022403 | 52 | 310 | 1.7 | 5.2 | 0.00 | 0.00 | 0.00 | 86 | 1012.0 |
| 20260503022305 | 52 | 311 | 1.7 | 5.2 | 0.00 | 0.00 | 0.00 | 86 | 1012.0 |
| 20260503022205 | 53 | 311 | 1.7 | 5.2 | 0.00 | 0.00 | 0.00 | 86 | 1012.0 |
| 20260503022103 | 53 | 312 | 1.7 | 5.2 | 0.00 | 0.00 | 0.00 | 86 | 1012.0 |
| 20260503022005 | 53 | 312 | 1.7 | 5.2 | 0.00 | 0.00 | 0.00 | 86 | 1012.0 |
| 20260503021804 | 53 | 306 | 1.7 | 7.8 | 0.00 | 0.00 | 0.00 | 86 | 1011.9 |
| 20260503021703 | 53 | 305 | 1.7 | 7.8 | 0.00 | 0.00 | 0.00 | 86 | 1012.0 |
| 20260503021603 | 53 | 303 | 1.7 | 7.8 | 0.00 | 0.00 | 0.00 | 86 | 1011.9 |
| 20260503021503 | 53 | 307 | 1.7 | 7.8 | 0.00 | 0.00 | 0.00 | 86 | 1011.9 |
| 20260503021403 | 53 | 308 | 1.7 | 7.8 | 0.00 | 0.00 | 0.00 | 86 | 1012.0 |
| 20260503021303 | 53 | 309 | 1.7 | 7.8 | 0.00 | 0.00 | 0.00 | 86 | 1012.0 |
| 20260503021205 | 53 | 312 | 1.7 | 7.8 | 0.00 | 0.00 | 0.00 | 86 | 1011.9 |
| 20260503021103 | 53 | 312 | 1.7 | 7.8 | 0.00 | 0.00 | 0.00 | 86 | 1011.9 |
| 20260503021003 | 53 | 311 | 1.7 | 7.8 | 0.00 | 0.00 | 0.00 | 86 | 1011.9 |
| 20260503020903 | 53 | 310 | 1.7 | 7.8 | 0.00 | 0.00 | 0.00 | 86 | 1012.0 |
| 20260503020803 | 53 | 308 | 1.7 | 5.2 | 0.00 | 0.00 | 0.00 | 86 | 1012.0 |
| 20260503020704 | 53 | 304 | 1.7 | 5.2 | 0.00 | 0.00 | 0.00 | 86 | 1011.9 |
| 20260503020603 | 53 | 305 | 1.7 | 4.3 | 0.00 | 0.00 | 0.00 | 86 | 1011.9 |
| 20260503020503 | 53 | 303 | 1.7 | 4.3 | 0.00 | 0.00 | 0.00 | 86 | 1012.0 |
| 20260503020403 | 53 | 303 | 1.7 | 5.2 | 0.00 | 0.00 | 0.00 | 86 | 1012.0 |
| 20260503020303 | 53 | 303 | 1.7 | 5.2 | 0.00 | 0.00 | 0.00 | 86 | 1011.9 |
| 20260503020205 | 53 | 301 | 1.7 | 5.2 | 0.00 | 0.00 | 0.00 | 86 | 1011.9 |
| 20260503020007 | 53 | 303 | 1.7 | 5.2 | 0.00 | 0.00 | 0.00 | 86 | 1012.0 |
| 20260503015903 | 53 | 305 | 1.7 | 5.2 | 0.00 | 0.00 | 0.00 | 86 | 1011.9 |
| 20260503015804 | 53 | 306 | 1.7 | 5.2 | 0.00 | 0.00 | 0.00 | 85 | 1012.1 |
| 20260503015704 | 53 | 310 | 1.7 | 5.2 | 0.00 | 0.00 | 0.00 | 85 | 1012.1 |
| 20260503015618 | 53 | 305 | 1.7 | 5.2 | 0.00 | 0.00 | 0.00 | 85 | 1012.0 |
| 20260503015603 | 53 | 304 | 1.7 | 5.2 | 0.00 | 0.00 | 0.00 | 85 | 1012.0 |
| 20260503015503 | 53 | 303 | 1.7 | 5.2 | 0.00 | 0.00 | 0.00 | 85 | 1012.0 |
| 20260503015305 | 53 | 306 | 1.7 | 5.2 | 0.00 | 0.00 | 0.00 | 86 | 1012.1 |
| 20260503015203 | 53 | 308 | 1.7 | 5.2 | 0.00 | 0.00 | 0.00 | 86 | 1012.1 |
| 20260503015103 | 53 | 302 | 1.7 | 5.2 | 0.00 | 0.00 | 0.00 | 86 | 1012.0 |
| 20260503015003 | 53 | 304 | 1.7 | 5.2 | 0.00 | 0.00 | 0.00 | 86 | 1012.1 |
| 20260503014903 | 53 | 303 | 1.7 | 5.2 | 0.00 | 0.00 | 0.00 | 86 | 1012.1 |
| 20260503014803 | 53 | 303 | 1.7 | 5.2 | 0.00 | 0.00 | 0.00 | 85 | 1012.1 |
| 20260503014706 | 53 | 303 | 1.7 | 7.0 | 0.00 | 0.00 | 0.00 | 85 | 1012.1 |
| 20260503014603 | 53 | 305 | 1.7 | 7.0 | 0.00 | 0.00 | 0.00 | 85 | 1012.1 |
| 20260503014505 | 53 | 304 | 1.7 | 7.0 | 0.00 | 0.00 | 0.00 | 85 | 1012.1 |
| 20260503014403 | 53 | 304 | 1.7 | 7.0 | 0.00 | 0.00 | 0.00 | 85 | 1012.2 |
| 20260503014303 | 53 | 303 | 1.7 | 7.0 | 0.00 | 0.00 | 0.00 | 85 | 1012.2 |
| 20260503014218 | 53 | 302 | 1.7 | 7.0 | 0.00 | 0.00 | 0.00 | 85 | 1012.2 |
| 20260503014203 | 53 | 300 | 1.7 | 7.0 | 0.00 | 0.00 | 0.00 | 85 | 1012.2 |
| 20260503014103 | 53 | 303 | 2.6 | 7.0 | 0.00 | 0.00 | 0.00 | 85 | 1012.2 |
| 20260503014018 | 53 | 304 | 2.6 | 7.0 | 0.00 | 0.00 | 0.00 | 85 | 1012.2 |
| 20260503013903 | 53 | 304 | 1.7 | 7.0 | 0.00 | 0.00 | 0.00 | 85 | 1012.4 |
| 20260503013817 | 53 | 302 | 1.7 | 7.0 | 0.00 | 0.00 | 0.00 | 85 | 1012.3 |
| 20260503013703 | 53 | 301 | 1.7 | 4.3 | 0.00 | 0.00 | 0.00 | 85 | 1012.3 |
| 20260503013519 | 53 | 306 | 1.7 | 4.3 | 0.00 | 0.00 | 0.00 | 85 | 1012.3 |
| 20260503013503 | 53 | 305 | 1.7 | 4.3 | 0.00 | 0.00 | 0.00 | 85 | 1012.4 |
| 20260503013403 | 53 | 305 | 1.7 | 4.3 | 0.00 | 0.00 | 0.00 | 85 | 1012.4 |
| 20260503013318 | 53 | 307 | 1.7 | 4.3 | 0.00 | 0.00 | 0.00 | 85 | 1012.4 |
| 20260503013203 | 53 | 305 | 1.7 | 4.3 | 0.00 | 0.00 | 0.00 | 85 | 1012.4 |
| 20260503013005 | 53 | 302 | 0.9 | 4.3 | 0.00 | 0.00 | 0.00 | 85 | 1012.4 |
| 20260503012903 | 53 | 303 | 0.9 | 4.3 | 0.00 | 0.00 | 0.00 | 85 | 1012.4 |
| 20260503012803 | 53 | 309 | 1.7 | 4.3 | 0.00 | 0.00 | 0.00 | 85 | 1012.4 |
| 20260503012717 | 53 | 312 | 1.7 | 5.2 | 0.00 | 0.00 | 0.00 | 85 | 1012.4 |
| 20260503012703 | 53 | 311 | 1.7 | 5.2 | 0.00 | 0.00 | 0.00 | 85 | 1012.4 |
| 20260503012603 | 53 | 309 | 1.7 | 5.2 | 0.00 | 0.00 | 0.00 | 85 | 1012.5 |
| 20260503012517 | 53 | 308 | 1.7 | 5.2 | 0.00 | 0.00 | 0.00 | 85 | 1012.4 |
| 20260503012403 | 53 | 307 | 1.7 | 5.2 | 0.00 | 0.00 | 0.00 | 85 | 1012.5 |
| 20260503012318 | 53 | 307 | 1.7 | 6.1 | 0.00 | 0.00 | 0.00 | 85 | 1012.4 |
| 20260503012203 | 53 | 308 | 1.7 | 7.0 | 0.00 | 0.00 | 0.00 | 85 | 1012.5 |
| 20260503012004 | 53 | 313 | 2.6 | 7.0 | 0.00 | 0.00 | 0.00 | 85 | 1012.5 |
| 20260503011903 | 53 | 313 | 2.6 | 7.0 | 0.00 | 0.00 | 0.00 | 85 | 1012.5 |
| 20260503011803 | 53 | 310 | 2.6 | 7.0 | 0.00 | 0.00 | 0.00 | 85 | 1012.5 |
| 20260503011703 | 53 | 311 | 2.6 | 7.0 | 0.00 | 0.00 | 0.00 | 85 | 1012.5 |
| 20260503011603 | 53 | 310 | 2.6 | 7.0 | 0.00 | 0.00 | 0.00 | 85 | 1012.6 |
| 20260503011503 | 53 | 309 | 2.6 | 7.0 | 0.00 | 0.00 | 0.00 | 85 | 1012.6 |
| 20260503011403 | 53 | 311 | 2.6 | 7.0 | 0.00 | 0.00 | 0.00 | 85 | 1012.6 |
| 20260503011303 | 53 | 307 | 2.6 | 7.0 | 0.00 | 0.00 | 0.00 | 85 | 1012.6 |
| 20260503011203 | 53 | 309 | 2.6 | 6.1 | 0.00 | 0.00 | 0.00 | 85 | 1012.7 |
| 20260503011117 | 53 | 307 | 2.6 | 6.1 | 0.00 | 0.00 | 0.00 | 85 | 1012.6 |
| 20260503011103 | 53 | 308 | 2.6 | 6.1 | 0.00 | 0.00 | 0.00 | 85 | 1012.6 |
| 20260503011003 | 53 | 306 | 2.6 | 7.0 | 0.00 | 0.00 | 0.00 | 85 | 1012.6 |
| 20260503010803 | 53 | 302 | 2.6 | 7.0 | 0.00 | 0.00 | 0.00 | 85 | 1012.7 |
| 20260503010717 | 53 | 297 | 2.6 | 7.0 | 0.00 | 0.00 | 0.00 | 85 | 1012.7 |
| 20260503010703 | 53 | 298 | 1.7 | 7.0 | 0.00 | 0.00 | 0.00 | 85 | 1012.7 |
| 20260503010603 | 53 | 302 | 1.7 | 7.0 | 0.00 | 0.00 | 0.00 | 85 | 1012.6 |
| 20260503010403 | 53 | 298 | 2.6 | 7.0 | 0.00 | 0.00 | 0.00 | 85 | 1012.6 |
| 20260503010318 | 53 | 298 | 2.6 | 7.0 | 0.00 | 0.00 | 0.00 | 85 | 1012.6 |
| 20260503010303 | 53 | 298 | 1.7 | 7.0 | 0.00 | 0.00 | 0.00 | 85 | 1012.6 |
| 20260503010203 | 53 | 298 | 1.7 | 7.0 | 0.00 | 0.00 | 0.00 | 85 | 1012.6 |
| 20260503010003 | 53 | 295 | 1.7 | 7.8 | 0.00 | 0.00 | 0.00 | 85 | 1012.6 |
| 20260503005903 | 53 | 295 | 1.7 | 7.8 | 0.00 | 0.00 | 0.00 | 85 | 1012.6 |
| 20260503005803 | 53 | 301 | 2.6 | 7.8 | 0.00 | 0.00 | 0.00 | 85 | 1012.7 |
| 20260503005703 | 53 | 302 | 2.6 | 7.8 | 0.00 | 0.00 | 0.00 | 85 | 1012.6 |
| 20260503005603 | 53 | 301 | 2.6 | 7.8 | 0.00 | 0.00 | 0.00 | 85 | 1012.6 |
| 20260503005519 | 53 | 304 | 2.6 | 7.8 | 0.00 | 0.00 | 0.00 | 85 | 1012.7 |
| 20260503005503 | 53 | 305 | 2.6 | 7.8 | 0.00 | 0.00 | 0.00 | 85 | 1012.7 |
| 20260503005403 | 53 | 307 | 2.6 | 7.8 | 0.00 | 0.00 | 0.00 | 85 | 1012.7 |
| 20260503005203 | 54 | 309 | 2.6 | 7.8 | 0.00 | 0.00 | 0.00 | 85 | 1012.7 |
| 20260503005105 | 54 | 308 | 1.7 | 7.0 | 0.00 | 0.00 | 0.00 | 85 | 1012.7 |
| 20260503005003 | 54 | 310 | 1.7 | 7.0 | 0.00 | 0.00 | 0.00 | 85 | 1012.6 |
| 20260503004903 | 54 | 314 | 1.7 | 7.0 | 0.00 | 0.00 | 0.00 | 85 | 1012.7 |
| 20260503004803 | 54 | 311 | 1.7 | 7.0 | 0.00 | 0.00 | 0.00 | 85 | 1012.7 |
| 20260503004703 | 54 | 312 | 1.7 | 7.0 | 0.00 | 0.00 | 0.00 | 85 | 1012.7 |
| 20260503004603 | 54 | 312 | 1.7 | 7.0 | 0.00 | 0.00 | 0.00 | 85 | 1012.8 |
| 20260503004503 | 54 | 314 | 1.7 | 7.0 | 0.00 | 0.00 | 0.00 | 85 | 1012.7 |
| 20260503004403 | 54 | 309 | 1.7 | 7.0 | 0.00 | 0.00 | 0.00 | 85 | 1012.7 |
| 20260503004303 | 54 | 307 | 1.7 | 7.0 | 0.00 | 0.00 | 0.00 | 85 | 1012.8 |
| 20260503004203 | 54 | 310 | 1.7 | 6.1 | 0.00 | 0.00 | 0.00 | 85 | 1012.8 |
| 20260503004103 | 54 | 314 | 1.7 | 6.1 | 0.00 | 0.00 | 0.00 | 85 | 1012.8 |
| 20260503004003 | 54 | 315 | 1.7 | 6.1 | 0.00 | 0.00 | 0.00 | 85 | 1012.8 |
| 20260503003903 | 54 | 312 | 1.7 | 6.1 | 0.00 | 0.00 | 0.00 | 85 | 1012.8 |
| 20260503003803 | 54 | 311 | 1.7 | 6.1 | 0.00 | 0.00 | 0.00 | 85 | 1012.9 |
| 20260503003703 | 54 | 310 | 1.7 | 6.1 | 0.00 | 0.00 | 0.00 | 85 | 1012.8 |
| 20260503003603 | 54 | 311 | 2.6 | 6.1 | 0.00 | 0.00 | 0.00 | 85 | 1012.8 |
| 20260503003503 | 54 | 309 | 1.7 | 8.7 | 0.00 | 0.00 | 0.00 | 85 | 1012.8 |
| 20260503003403 | 54 | 313 | 2.6 | 8.7 | 0.00 | 0.00 | 0.00 | 85 | 1012.8 |
| 20260503003303 | 54 | 315 | 2.6 | 8.7 | 0.00 | 0.00 | 0.00 | 85 | 1012.8 |
| 20260503003203 | 54 | 312 | 2.6 | 8.7 | 0.00 | 0.00 | 0.00 | 84 | 1012.9 |
| 20260503003103 | 54 | 308 | 2.6 | 8.7 | 0.00 | 0.00 | 0.00 | 84 | 1012.8 |
| 20260503003003 | 54 | 308 | 1.7 | 8.7 | 0.00 | 0.00 | 0.00 | 84 | 1012.8 |
| 20260503002803 | 54 | 307 | 1.7 | 8.7 | 0.00 | 0.00 | 0.00 | 84 | 1012.8 |
| 20260503002703 | 54 | 307 | 1.7 | 8.7 | 0.00 | 0.00 | 0.00 | 84 | 1012.8 |
| 20260503002503 | 54 | 303 | 1.7 | 5.2 | 0.00 | 0.00 | 0.00 | 84 | 1012.7 |
| 20260503002403 | 54 | 301 | 1.7 | 5.2 | 0.00 | 0.00 | 0.00 | 84 | 1012.8 |
| 20260503002305 | 54 | 298 | 1.7 | 4.3 | 0.00 | 0.00 | 0.00 | 84 | 1012.8 |
| 20260503002203 | 54 | 300 | 1.7 | 4.3 | 0.00 | 0.00 | 0.00 | 84 | 1012.8 |
| 20260503002103 | 54 | 300 | 1.7 | 4.3 | 0.00 | 0.00 | 0.00 | 84 | 1012.8 |
| 20260503002003 | 54 | 298 | 1.7 | 7.0 | 0.00 | 0.00 | 0.00 | 84 | 1012.8 |
| 20260503001903 | 54 | 300 | 1.7 | 7.0 | 0.00 | 0.00 | 0.00 | 84 | 1012.8 |
| 20260503001803 | 54 | 303 | 1.7 | 7.0 | 0.00 | 0.00 | 0.00 | 84 | 1012.8 |
| 20260503001703 | 54 | 302 | 1.7 | 7.0 | 0.00 | 0.00 | 0.00 | 84 | 1012.8 |
| 20260503001603 | 54 | 302 | 1.7 | 7.0 | 0.00 | 0.00 | 0.00 | 84 | 1012.8 |
| 20260503001503 | 54 | 300 | 1.7 | 7.8 | 0.00 | 0.00 | 0.00 | 84 | 1012.8 |
| 20260503001403 | 54 | 301 | 1.7 | 7.8 | 0.00 | 0.00 | 0.00 | 84 | 1012.9 |
| 20260503001303 | 54 | 302 | 2.6 | 7.8 | 0.00 | 0.00 | 0.00 | 84 | 1012.8 |
| 20260503001203 | 54 | 302 | 2.6 | 7.8 | 0.00 | 0.00 | 0.00 | 84 | 1012.8 |
| 20260503001103 | 54 | 301 | 1.7 | 7.8 | 0.00 | 0.00 | 0.00 | 84 | 1012.8 |
| 20260503001017 | 54 | 302 | 1.7 | 7.8 | 0.00 | 0.00 | 0.00 | 84 | 1012.8 |
| 20260503001003 | 54 | 302 | 1.7 | 7.8 | 0.00 | 0.00 | 0.00 | 84 | 1012.8 |
| 20260503000918 | 54 | 302 | 1.7 | 7.8 | 0.00 | 0.00 | 0.00 | 84 | 1012.8 |
| 20260503000904 | 54 | 302 | 1.7 | 7.8 | 0.00 | 0.00 | 0.00 | 84 | 1012.7 |
| 20260503000617 | 54 | 295 | 1.7 | 7.8 | 0.00 | 0.00 | 0.00 | 83 | 1012.8 |
| 20260503000603 | 54 | 294 | 1.7 | 7.8 | 0.00 | 0.00 | 0.00 | 83 | 1012.8 |
| 20260503000503 | 55 | 296 | 1.7 | 7.8 | 0.00 | 0.00 | 0.00 | 83 | 1012.8 |
| 20260503000204 | 55 | 296 | 1.7 | 7.0 | 0.00 | 0.00 | 0.00 | 84 | 1012.8 |
| 20260503000116 | 55 | 298 | 1.7 | 7.0 | 0.00 | 0.00 | 0.00 | 84 | 1012.8 |
| 20260503000103 | 55 | 299 | 2.6 | 7.0 | 0.00 | 0.00 | 0.00 | 84 | 1012.8 |
| 20260503000005 | 55 | 298 | 2.6 | 7.0 | 0.00 | 0.00 | 0.00 | 84 | 1012.8 |
| 20260502235803 | 55 | 301 | 2.6 | 7.0 | 0.00 | 0.00 | 0.00 | 84 | 1012.8 |
| 20260502235703 | 54 | 304 | 2.6 | 7.0 | 0.00 | 0.00 | 0.00 | 84 | 1012.8 |
| 20260502235603 | 54 | 307 | 2.6 | 7.0 | 0.00 | 0.00 | 0.00 | 84 | 1012.8 |
| 20260502235503 | 55 | 308 | 2.6 | 7.0 | 0.00 | 0.00 | 0.00 | 83 | 1012.8 |
| 20260502235403 | 55 | 307 | 2.6 | 6.1 | 0.00 | 0.00 | 0.00 | 83 | 1012.9 |
| 20260502235305 | 55 | 308 | 2.6 | 7.0 | 0.00 | 0.00 | 0.00 | 83 | 1013.0 |
| 20260502235218 | 55 | 307 | 2.6 | 7.0 | 0.00 | 0.00 | 0.00 | 83 | 1012.9 |
| 20260502235203 | 55 | 306 | 2.6 | 7.0 | 0.00 | 0.00 | 0.00 | 83 | 1012.9 |
| 20260502235118 | 55 | 307 | 2.6 | 7.0 | 0.00 | 0.00 | 0.00 | 83 | 1013.0 |
| 20260502235103 | 55 | 306 | 2.6 | 7.0 | 0.00 | 0.00 | 0.00 | 83 | 1013.0 |
| 20260502234803 | 55 | 306 | 2.6 | 7.0 | 0.00 | 0.00 | 0.00 | 83 | 1013.0 |
| 20260502234703 | 55 | 306 | 2.6 | 7.8 | 0.00 | 0.00 | 0.00 | 83 | 1013.0 |
| 20260502234603 | 55 | 300 | 1.7 | 7.8 | 0.00 | 0.00 | 0.00 | 83 | 1013.1 |
| 20260502234518 | 55 | 301 | 1.7 | 7.8 | 0.00 | 0.00 | 0.00 | 83 | 1013.1 |
| 20260502234503 | 55 | 299 | 1.7 | 7.8 | 0.00 | 0.00 | 0.00 | 83 | 1013.1 |
| 20260502234403 | 55 | 302 | 1.7 | 7.8 | 0.00 | 0.00 | 0.00 | 83 | 1013.2 |
| 20260502234317 | 55 | 301 | 1.7 | 7.8 | 0.00 | 0.00 | 0.00 | 83 | 1013.2 |
| 20260502234203 | 55 | 305 | 2.6 | 7.8 | 0.00 | 0.00 | 0.00 | 83 | 1013.2 |
| 20260502234116 | 55 | 304 | 2.6 | 7.8 | 0.00 | 0.00 | 0.00 | 83 | 1013.1 |
| 20260502234005 | 55 | 307 | 2.6 | 7.8 | 0.00 | 0.00 | 0.00 | 83 | 1013.2 |
| 20260502233803 | 55 | 308 | 2.6 | 8.7 | 0.00 | 0.00 | 0.00 | 83 | 1013.3 |
| 20260502233703 | 55 | 308 | 2.6 | 8.7 | 0.00 | 0.00 | 0.00 | 83 | 1013.3 |
| 20260502233603 | 55 | 309 | 2.6 | 8.7 | 0.00 | 0.00 | 0.00 | 82 | 1013.2 |
| 20260502233503 | 55 | 308 | 2.6 | 8.7 | 0.00 | 0.00 | 0.00 | 82 | 1013.3 |
| 20260502233404 | 55 | 308 | 2.6 | 8.7 | 0.00 | 0.00 | 0.00 | 82 | 1013.2 |
| 20260502233303 | 55 | 308 | 2.6 | 8.7 | 0.00 | 0.00 | 0.00 | 82 | 1013.3 |
| 20260502233220 | 55 | 305 | 2.6 | 8.7 | 0.00 | 0.00 | 0.00 | 82 | 1013.3 |
| 20260502233203 | 55 | 306 | 2.6 | 8.7 | 0.00 | 0.00 | 0.00 | 82 | 1013.4 |
| 20260502233103 | 56 | 308 | 2.6 | 8.7 | 0.00 | 0.00 | 0.00 | 82 | 1013.3 |
| 20260502232903 | 56 | 306 | 2.6 | 8.7 | 0.00 | 0.00 | 0.00 | 83 | 1013.5 |
| 20260502232803 | 56 | 306 | 2.6 | 6.1 | 0.00 | 0.00 | 0.00 | 83 | 1013.3 |
| 20260502232703 | 56 | 307 | 2.6 | 6.1 | 0.00 | 0.00 | 0.00 | 83 | 1013.3 |
| 20260502232617 | 56 | 308 | 2.6 | 6.1 | 0.00 | 0.00 | 0.00 | 83 | 1013.3 |
| 20260502232603 | 56 | 307 | 2.6 | 6.1 | 0.00 | 0.00 | 0.00 | 83 | 1013.3 |
| 20260502232518 | 56 | 307 | 2.6 | 6.1 | 0.00 | 0.00 | 0.00 | 83 | 1013.3 |
| 20260502232503 | 56 | 306 | 2.6 | 6.1 | 0.00 | 0.00 | 0.00 | 83 | 1013.3 |
| 20260502232204 | 56 | 302 | 1.7 | 7.0 | 0.00 | 0.00 | 0.00 | 83 | 1013.3 |
| 20260502232105 | 56 | 301 | 1.7 | 7.0 | 0.00 | 0.00 | 0.00 | 83 | 1013.4 |
| 20260502232017 | 56 | 302 | 1.7 | 7.0 | 0.00 | 0.00 | 0.00 | 83 | 1013.4 |
| 20260502232003 | 56 | 302 | 2.6 | 7.0 | 0.00 | 0.00 | 0.00 | 83 | 1013.4 |
| 20260502231903 | 55 | 304 | 2.6 | 7.0 | 0.00 | 0.00 | 0.00 | 83 | 1013.5 |
| 20260502231617 | 56 | 305 | 2.6 | 7.8 | 0.00 | 0.00 | 0.00 | 83 | 1013.4 |
| 20260502231603 | 56 | 306 | 2.6 | 7.8 | 0.00 | 0.00 | 0.00 | 83 | 1013.4 |
| 20260502231503 | 55 | 307 | 2.6 | 7.8 | 0.00 | 0.00 | 0.00 | 83 | 1013.5 |
| 20260502231303 | 55 | 308 | 2.6 | 7.8 | 0.00 | 0.00 | 0.00 | 83 | 1013.5 |
| 20260502231203 | 55 | 308 | 2.6 | 7.8 | 0.00 | 0.00 | 0.00 | 83 | 1013.5 |
| 20260502231103 | 55 | 307 | 2.6 | 7.8 | 0.00 | 0.00 | 0.00 | 83 | 1013.5 |
| 20260502231003 | 55 | 305 | 2.6 | 7.8 | 0.00 | 0.00 | 0.00 | 83 | 1013.5 |